Time,TemperatureF,DewpointF,PressureIn,WindDirection,WindDirectionDegrees,WindSpeedMPH,WindSpeedGustMPH,Humidity,HourlyPrecipIn,Conditions,Clouds,dailyrainin,SolarRadiationWatts/m^2,SoftwareType,DateUTC
2013-06-02 00:01:00,70.4,62.8,29.98,NW,314,0.0,2.0,77,0.00,,SKC,0.00,0.00,VWS V14.01,2013-06-02 04:01:00,
2013-06-02 00:06:00,70.2,62.7,29.98,NW,314,0.0,1.0,77,0.00,,SKC,0.00,0.00,VWS V14.01,2013-06-02 04:06:00,
2013-06-02 00:11:00,70.0,62.8,29.97,NW,314,0.0,1.0,78,0.00,,SKC,0.00,0.00,VWS V14.01,2013-06-02 04:11:00,
2013-06-02 00:12:00,70.0,62.8,29.97,NW,314,0.0,1.0,78,0.00,,SKC,0.00,0.00,VWS V14.01,2013-06-02 04:12:00,
2013-06-02 00:16:00,69.7,62.5,29.97,NW,314,0.0,2.0,78,0.00,,SKC,0.00,0.00,VWS V14.01,2013-06-02 04:16:00,
2013-06-02 00:17:00,69.7,62.9,29.97,NW,314,0.0,2.0,79,0.00,,SKC,0.00,0.00,VWS V14.01,2013-06-02 04:17:00,
2013-06-02 00:18:00,69.6,62.8,29.97,NW,314,0.0,2.0,79,0.00,,SKC,0.00,0.00,VWS V14.01,2013-06-02 04:18:00,
2013-06-02 00:21:00,69.4,63.0,29.97,NW,314,0.0,2.0,80,0.00,,SKC,0.00,0.00,VWS V14.01,2013-06-02 04:21:00,
2013-06-02 00:22:00,69.4,63.0,29.97,NW,314,0.0,2.0,80,0.00,,SKC,0.00,0.00,VWS V14.01,2013-06-02 04:22:00,
2013-06-02 00:23:00,69.3,62.5,29.97,NW,314,1.0,2.0,79,0.00,,SKC,0.00,0.00,VWS V14.01,2013-06-02 04:23:00,
2013-06-02 00:26:00,69.2,62.8,29.97,NW,314,0.0,2.0,80,0.00,,SKC,0.00,0.00,VWS V14.01,2013-06-02 04:26:00,
2013-06-02 00:27:00,69.2,62.8,29.97,NW,314,0.0,2.0,80,0.00,,SKC,0.00,0.00,VWS V14.01,2013-06-02 04:27:00,
2013-06-02 00:28:00,69.2,62.8,29.97,NW,314,0.0,2.0,80,0.00,,SKC,0.00,0.00,VWS V14.01,2013-06-02 04:28:00,
2013-06-02 00:31:00,69.0,62.6,29.97,NW,314,0.0,0.0,80,0.00,,SKC,0.00,0.00,VWS V14.01,2013-06-02 04:31:00,
2013-06-02 00:32:00,69.0,62.6,29.97,NW,315,0.0,0.0,80,0.00,,SKC,0.00,0.00,VWS V14.01,2013-06-02 04:32:00,
2013-06-02 00:33:00,69.0,62.9,29.97,NW,314,0.0,0.0,81,0.00,,SKC,0.00,0.00,VWS V14.01,2013-06-02 04:33:00,
2013-06-02 00:36:00,68.8,62.7,29.97,NW,314,1.0,2.0,81,0.00,,SKC,0.00,0.00,VWS V14.01,2013-06-02 04:36:00,
2013-06-02 00:37:00,68.8,62.7,29.97,NW,314,0.0,2.0,81,0.00,,SKC,0.00,0.00,VWS V14.01,2013-06-02 04:37:00,
2013-06-02 00:38:00,68.7,62.6,29.97,NW,314,0.0,2.0,81,0.00,,SKC,0.00,0.00,VWS V14.01,2013-06-02 04:38:00,
2013-06-02 00:39:00,68.7,62.6,29.97,NW,314,2.0,2.0,81,0.00,,SKC,0.00,0.00,VWS V14.01,2013-06-02 04:39:00,
2013-06-02 00:42:00,68.5,62.5,29.97,NW,314,0.0,2.0,81,0.00,,SKC,0.00,0.00,VWS V14.01,2013-06-02 04:42:00,
2013-06-02 00:43:00,68.5,62.5,29.97,NW,314,1.0,2.0,81,0.00,,SKC,0.00,0.00,VWS V14.01,2013-06-02 04:43:00,
2013-06-02 00:45:00,68.5,62.5,29.97,NW,314,0.0,2.0,81,0.00,,SKC,0.00,0.00,VWS V14.01,2013-06-02 04:45:00,
2013-06-02 00:47:00,68.4,62.7,29.97,NW,314,0.0,2.0,82,0.00,,SKC,0.00,0.00,VWS V14.01,2013-06-02 04:47:00,
2013-06-02 00:48:00,68.4,62.7,29.97,NW,314,0.0,2.0,82,0.00,,SKC,0.00,0.00,VWS V14.01,2013-06-02 04:48:00,
2013-06-02 00:50:00,68.3,62.6,29.97,NW,314,0.0,2.0,82,0.00,,SKC,0.00,0.00,VWS V14.01,2013-06-02 04:50:00,
2013-06-02 00:52:00,68.3,62.6,29.97,NW,314,0.0,2.0,82,0.00,,SKC,0.00,0.00,VWS V14.01,2013-06-02 04:52:00,
2013-06-02 00:53:00,68.2,62.5,29.97,NW,314,0.0,2.0,82,0.00,,SKC,0.00,0.00,VWS V14.01,2013-06-02 04:53:00,
2013-06-02 00:55:00,68.1,62.4,29.97,NW,314,1.0,2.0,82,0.00,,SKC,0.00,0.00,VWS V14.01,2013-06-02 04:55:00,
2013-06-02 00:57:00,68.1,62.8,29.97,NW,314,0.0,2.0,83,0.00,,SKC,0.00,0.00,VWS V14.01,2013-06-02 04:57:00,
2013-06-02 00:58:00,68.1,62.8,29.97,NW,314,0.0,2.0,83,0.00,,SKC,0.00,0.00,VWS V14.01,2013-06-02 04:58:00,
2013-06-02 00:59:00,68.1,62.8,29.97,NW,314,0.0,2.0,83,0.00,,SKC,0.00,0.00,VWS V14.01,2013-06-02 04:59:00,
2013-06-02 01:00:00,68.0,62.7,29.97,NW,314,0.0,2.0,83,0.00,,SKC,0.00,0.00,VWS V14.01,2013-06-02 05:00:00,
2013-06-02 01:02:00,67.9,62.5,29.96,NW,314,0.0,0.0,83,0.00,,SKC,0.00,0.00,VWS V14.01,2013-06-02 05:02:00,
2013-06-02 01:03:00,67.9,62.5,29.96,NW,314,0.0,0.0,83,0.00,,SKC,0.00,0.00,VWS V14.01,2013-06-02 05:03:00,
2013-06-02 01:04:00,67.9,62.5,29.96,NW,315,0.0,0.0,83,0.00,,SKC,0.00,0.00,VWS V14.01,2013-06-02 05:04:00,
2013-06-02 01:06:00,67.8,62.5,29.96,NW,314,0.0,0.0,83,0.00,,SKC,0.00,0.00,VWS V14.01,2013-06-02 05:06:00,
2013-06-02 01:07:00,67.7,62.4,29.96,NW,314,0.0,0.0,83,0.00,,SKC,0.00,0.00,VWS V14.01,2013-06-02 05:07:00,
2013-06-02 01:08:00,67.7,62.4,29.96,NW,314,0.0,0.0,83,0.00,,SKC,0.00,0.00,VWS V14.01,2013-06-02 05:08:00,
2013-06-02 01:09:00,67.7,62.4,29.96,NW,314,0.0,0.0,83,0.00,,SKC,0.00,0.00,VWS V14.01,2013-06-02 05:09:00,
2013-06-02 01:11:00,67.6,62.3,29.96,NW,314,0.0,0.0,83,0.00,,SKC,0.00,0.00,VWS V14.01,2013-06-02 05:11:00,
2013-06-02 01:13:00,67.6,62.6,29.96,NW,314,0.0,0.0,84,0.00,,SKC,0.00,0.00,VWS V14.01,2013-06-02 05:13:00,
2013-06-02 01:14:00,67.6,62.6,29.96,NW,314,0.0,0.0,84,0.00,,SKC,0.00,0.00,VWS V14.01,2013-06-02 05:14:00,
2013-06-02 01:15:00,67.5,62.5,29.96,NW,314,0.0,0.0,84,0.00,,SKC,0.00,0.00,VWS V14.01,2013-06-02 05:15:00,
2013-06-02 01:17:00,67.4,62.4,29.95,NW,314,0.0,0.0,84,0.00,,SKC,0.00,0.00,VWS V14.01,2013-06-02 05:17:00,
2013-06-02 01:18:00,67.4,62.4,29.95,NW,314,0.0,0.0,84,0.00,,SKC,0.00,0.00,VWS V14.01,2013-06-02 05:18:00,
2013-06-02 01:19:00,67.4,62.4,29.95,NW,314,0.0,0.0,84,0.00,,SKC,0.00,0.00,VWS V14.01,2013-06-02 05:19:00,
2013-06-02 01:20:00,67.4,62.4,29.95,NW,314,0.0,0.0,84,0.00,,SKC,0.00,0.00,VWS V14.01,2013-06-02 05:20:00,
2013-06-02 01:23:00,67.4,62.4,29.95,NW,314,0.0,0.0,84,0.00,,SKC,0.00,0.00,VWS V14.01,2013-06-02 05:23:00,
2013-06-02 01:24:00,67.4,62.4,29.95,NW,315,0.0,0.0,84,0.00,,SKC,0.00,0.00,VWS V14.01,2013-06-02 05:24:00,
2013-06-02 01:26:00,67.3,62.3,29.95,NW,314,0.0,0.0,84,0.00,,SKC,0.00,0.00,VWS V14.01,2013-06-02 05:26:00,
2013-06-02 01:28:00,67.2,62.2,29.95,NW,314,0.0,0.0,84,0.00,,SKC,0.00,0.00,VWS V14.01,2013-06-02 05:28:00,
2013-06-02 01:29:00,67.1,62.5,29.95,NW,314,0.0,0.0,85,0.00,,SKC,0.00,0.00,VWS V14.01,2013-06-02 05:29:00,
2013-06-02 01:31:00,67.0,62.3,29.95,NW,314,0.0,0.0,85,0.00,,SKC,0.00,0.00,VWS V14.01,2013-06-02 05:31:00,
2013-06-02 01:33:00,67.0,62.3,29.95,NW,314,0.0,0.0,85,0.00,,SKC,0.00,0.00,VWS V14.01,2013-06-02 05:33:00,
2013-06-02 01:34:00,67.0,62.3,29.95,NW,314,0.0,0.0,85,0.00,,SKC,0.00,0.00,VWS V14.01,2013-06-02 05:34:00,
2013-06-02 01:35:00,66.9,62.2,29.95,NW,315,0.0,0.0,85,0.00,,SKC,0.00,0.00,VWS V14.01,2013-06-02 05:35:00,
2013-06-02 01:36:00,66.9,62.2,29.95,NW,314,0.0,0.0,85,0.00,,SKC,0.00,0.00,VWS V14.01,2013-06-02 05:36:00,
2013-06-02 01:38:00,66.9,62.2,29.95,NW,314,0.0,0.0,85,0.00,,SKC,0.00,0.00,VWS V14.01,2013-06-02 05:38:00,
2013-06-02 01:39:00,66.9,62.2,29.95,NW,314,0.0,0.0,85,0.00,,SKC,0.00,0.00,VWS V14.01,2013-06-02 05:39:00,
2013-06-02 01:40:00,66.9,62.2,29.95,SW,226,0.0,4.0,85,0.00,,SKC,0.00,0.00,VWS V14.01,2013-06-02 05:40:00,
2013-06-02 01:41:00,67.0,62.3,29.95,SW,217,0.0,4.0,85,0.00,,SKC,0.00,0.00,VWS V14.01,2013-06-02 05:41:00,
2013-06-02 01:43:00,66.9,62.2,29.95,SW,217,0.0,4.0,85,0.00,,SKC,0.00,0.00,VWS V14.01,2013-06-02 05:43:00,
2013-06-02 01:44:00,66.9,62.2,29.95,SW,217,0.0,4.0,85,0.00,,SKC,0.00,0.00,VWS V14.01,2013-06-02 05:44:00,
2013-06-02 01:45:00,66.9,62.2,29.95,SW,217,0.0,4.0,85,0.00,,SKC,0.00,0.00,VWS V14.01,2013-06-02 05:45:00,
2013-06-02 01:46:00,66.9,62.2,29.95,SW,217,0.0,4.0,85,0.00,,SKC,0.00,0.00,VWS V14.01,2013-06-02 05:46:00,
2013-06-02 01:48:00,66.9,62.2,29.95,SW,217,0.0,4.0,85,0.00,,SKC,0.00,0.00,VWS V14.01,2013-06-02 05:48:00,
2013-06-02 01:49:00,66.9,62.2,29.95,SW,217,0.0,4.0,85,0.00,,SKC,0.00,0.00,VWS V14.01,2013-06-02 05:49:00,
2013-06-02 01:50:00,66.9,62.2,29.95,SW,217,0.0,4.0,85,0.00,,SKC,0.00,0.00,VWS V14.01,2013-06-02 05:50:00,
2013-06-02 01:51:00,66.9,62.2,29.95,SW,217,0.0,4.0,85,0.00,,SKC,0.00,0.00,VWS V14.01,2013-06-02 05:51:00,
2013-06-02 01:53:00,66.9,62.2,29.94,SW,217,1.0,4.0,85,0.00,,SKC,0.00,0.00,VWS V14.01,2013-06-02 05:53:00,
2013-06-02 01:54:00,67.0,62.3,29.94,SW,217,0.0,4.0,85,0.00,,SKC,0.00,0.00,VWS V14.01,2013-06-02 05:54:00,
2013-06-02 01:55:00,67.0,62.3,29.94,SW,217,0.0,4.0,85,0.00,,SKC,0.00,0.00,VWS V14.01,2013-06-02 05:55:00,
2013-06-02 01:57:00,67.0,62.3,29.94,SW,217,0.0,4.0,85,0.00,,SKC,0.00,0.00,VWS V14.01,2013-06-02 05:57:00,
2013-06-02 01:58:00,67.0,62.3,29.94,SW,217,0.0,4.0,85,0.00,,SKC,0.00,0.00,VWS V14.01,2013-06-02 05:58:00,
2013-06-02 02:00:00,67.1,62.5,29.94,SW,217,0.0,4.0,85,0.00,,SKC,0.00,0.00,VWS V14.01,2013-06-02 06:00:00,
2013-06-02 02:02:00,67.1,62.5,29.94,SW,217,0.0,0.0,85,0.00,,SKC,0.00,0.00,VWS V14.01,2013-06-02 06:02:00,
2013-06-02 02:03:00,67.2,62.5,29.94,SW,217,0.0,0.0,85,0.00,,SKC,0.00,0.00,VWS V14.01,2013-06-02 06:03:00,
2013-06-02 02:05:00,67.2,62.5,29.94,SW,217,0.0,0.0,85,0.00,,SKC,0.00,0.00,VWS V14.01,2013-06-02 06:05:00,
2013-06-02 02:06:00,67.2,62.5,29.93,SW,217,0.0,0.0,85,0.00,,SKC,0.00,0.00,VWS V14.01,2013-06-02 06:06:00,
2013-06-02 02:07:00,67.2,62.5,29.93,SW,217,0.0,0.0,85,0.00,,SKC,0.00,0.00,VWS V14.01,2013-06-02 06:07:00,
2013-06-02 02:08:00,67.2,62.5,29.93,SW,217,0.0,0.0,85,0.00,,SKC,0.00,0.00,VWS V14.01,2013-06-02 06:08:00,
2013-06-02 02:10:00,67.2,62.2,29.93,SW,217,0.0,0.0,84,0.00,,SKC,0.00,0.00,VWS V14.01,2013-06-02 06:10:00,
2013-06-02 02:11:00,67.2,62.2,29.93,SW,217,0.0,0.0,84,0.00,,SKC,0.00,0.00,VWS V14.01,2013-06-02 06:11:00,
2013-06-02 02:12:00,67.2,62.2,29.93,SW,217,0.0,0.0,84,0.00,,SKC,0.00,0.00,VWS V14.01,2013-06-02 06:12:00,
2013-06-02 02:14:00,67.2,62.2,29.92,SW,217,0.0,0.0,84,0.00,,SKC,0.00,0.00,VWS V14.01,2013-06-02 06:14:00,
2013-06-02 02:16:00,67.2,62.2,29.92,SW,217,0.0,0.0,84,0.00,,SKC,0.00,0.00,VWS V14.01,2013-06-02 06:16:00,
2013-06-02 02:17:00,67.2,62.2,29.92,SW,217,0.0,0.0,84,0.00,,SKC,0.00,0.00,VWS V14.01,2013-06-02 06:17:00,
2013-06-02 02:19:00,67.2,62.2,29.93,SW,217,0.0,0.0,84,0.00,,SKC,0.00,0.00,VWS V14.01,2013-06-02 06:19:00,
2013-06-02 02:21:00,67.2,62.2,29.93,SW,217,0.0,0.0,84,0.00,,SKC,0.00,0.00,VWS V14.01,2013-06-02 06:21:00,
2013-06-02 02:22:00,67.2,62.2,29.93,SW,217,0.0,0.0,84,0.00,,SKC,0.00,0.00,VWS V14.01,2013-06-02 06:22:00,
2013-06-02 02:24:00,67.2,62.2,29.93,SW,217,0.0,2.0,84,0.00,,SKC,0.00,0.00,VWS V14.01,2013-06-02 06:24:00,
2013-06-02 02:26:00,67.2,62.5,29.93,SW,217,1.0,2.0,85,0.00,,SKC,0.00,0.00,VWS V14.01,2013-06-02 06:26:00,
2013-06-02 02:27:00,67.1,62.5,29.93,SW,217,0.0,2.0,85,0.00,,SKC,0.00,0.00,VWS V14.01,2013-06-02 06:27:00,
2013-06-02 02:28:00,67.1,62.5,29.93,SW,217,0.0,2.0,85,0.00,,SKC,0.00,0.00,VWS V14.01,2013-06-02 06:28:00,
2013-06-02 02:30:00,67.0,62.3,29.92,SW,217,0.0,2.0,85,0.00,,SKC,0.00,0.00,VWS V14.01,2013-06-02 06:30:00,
2013-06-02 02:31:00,67.0,62.3,29.92,SW,217,1.0,2.0,85,0.00,,SKC,0.00,0.00,VWS V14.01,2013-06-02 06:31:00,
2013-06-02 02:32:00,66.9,62.2,29.92,NNW,342,0.0,3.0,85,0.00,,SKC,0.00,0.00,VWS V14.01,2013-06-02 06:32:00,
2013-06-02 02:33:00,66.9,62.2,29.92,NNW,342,0.0,3.0,85,0.00,,SKC,0.00,0.00,VWS V14.01,2013-06-02 06:33:00,
2013-06-02 02:35:00,66.8,62.2,29.92,NNW,342,0.0,3.0,85,0.00,,SKC,0.00,0.00,VWS V14.01,2013-06-02 06:35:00,
2013-06-02 02:36:00,66.8,62.2,29.92,NNW,342,1.0,3.0,85,0.00,,SKC,0.00,0.00,VWS V14.01,2013-06-02 06:36:00,
2013-06-02 02:38:00,66.7,62.0,29.92,NNW,342,2.0,3.0,85,0.00,,SKC,0.00,0.00,VWS V14.01,2013-06-02 06:38:00,
2013-06-02 02:40:00,66.6,62.0,29.92,NNW,342,1.0,3.0,85,0.00,,SKC,0.00,0.00,VWS V14.01,2013-06-02 06:40:00,
2013-06-02 02:41:00,66.6,62.3,29.92,NNW,342,1.0,3.0,86,0.00,,SKC,0.00,0.00,VWS V14.01,2013-06-02 06:41:00,
2013-06-02 02:43:00,66.5,62.2,29.92,NNW,342,0.0,3.0,86,0.00,,SKC,0.00,0.00,VWS V14.01,2013-06-02 06:43:00,
2013-06-02 02:44:00,66.6,62.3,29.92,NNW,342,1.0,3.0,86,0.00,,SKC,0.00,0.00,VWS V14.01,2013-06-02 06:44:00,
2013-06-02 02:45:00,66.6,62.3,29.92,NNW,342,0.0,3.0,86,0.00,,SKC,0.00,0.00,VWS V14.01,2013-06-02 06:45:00,
2013-06-02 02:46:00,66.6,62.3,29.92,NNW,342,0.0,3.0,86,0.00,,SKC,0.00,0.00,VWS V14.01,2013-06-02 06:46:00,
2013-06-02 02:47:00,66.6,62.3,29.92,NNW,342,0.0,3.0,86,0.00,,SKC,0.00,0.00,VWS V14.01,2013-06-02 06:47:00,
2013-06-02 02:48:00,66.6,62.3,29.92,NNW,342,0.0,3.0,86,0.00,,SKC,0.00,0.00,VWS V14.01,2013-06-02 06:48:00,
2013-06-02 02:49:00,66.5,62.2,29.92,NNW,342,0.0,3.0,86,0.00,,SKC,0.00,0.00,VWS V14.01,2013-06-02 06:49:00,
2013-06-02 02:50:00,66.5,62.2,29.92,NNW,342,0.0,3.0,86,0.00,,SKC,0.00,0.00,VWS V14.01,2013-06-02 06:50:00,
2013-06-02 02:51:00,66.5,62.2,29.92,NNW,342,0.0,3.0,86,0.00,,SKC,0.00,0.00,VWS V14.01,2013-06-02 06:51:00,
2013-06-02 02:52:00,66.5,62.2,29.92,NNW,342,0.0,3.0,86,0.00,,SKC,0.00,0.00,VWS V14.01,2013-06-02 06:52:00,
2013-06-02 02:54:00,66.5,62.2,29.92,NNW,342,1.0,3.0,86,0.00,,SKC,0.00,0.00,VWS V14.01,2013-06-02 06:54:00,
2013-06-02 02:55:00,66.5,62.2,29.92,NNW,342,0.0,3.0,86,0.00,,SKC,0.00,0.00,VWS V14.01,2013-06-02 06:55:00,
2013-06-02 02:57:00,66.5,62.2,29.92,NNW,342,1.0,3.0,86,0.00,,SKC,0.00,0.00,VWS V14.01,2013-06-02 06:57:00,
2013-06-02 02:59:00,66.4,62.1,29.92,SE,131,0.0,4.0,86,0.00,,SKC,0.00,0.00,VWS V14.01,2013-06-02 06:59:00,
2013-06-02 03:00:00,66.4,62.1,29.92,SE,130,0.0,4.0,86,0.00,,SKC,0.00,0.00,VWS V14.01,2013-06-02 07:00:00,
2013-06-02 03:02:00,66.4,62.4,29.92,SE,130,0.0,2.0,87,0.00,,SKC,0.00,0.00,VWS V14.01,2013-06-02 07:02:00,
2013-06-02 03:05:00,66.4,62.4,29.92,SE,130,0.0,2.0,87,0.00,,SKC,0.00,0.00,VWS V14.01,2013-06-02 07:05:00,
2013-06-02 03:07:00,66.3,62.3,29.92,SE,130,0.0,2.0,87,0.00,,SKC,0.00,0.00,VWS V14.01,2013-06-02 07:07:00,
2013-06-02 03:10:00,66.3,62.3,29.92,SE,130,2.0,2.0,87,0.00,,SKC,0.00,0.00,VWS V14.01,2013-06-02 07:10:00,
2013-06-02 03:11:00,66.2,62.2,29.91,SE,130,1.0,3.0,87,0.00,,SKC,0.00,0.00,VWS V14.01,2013-06-02 07:11:00,
2013-06-02 03:12:00,66.1,62.1,29.91,SE,128,1.0,3.0,87,0.00,,SKC,0.00,0.00,VWS V14.01,2013-06-02 07:12:00,
2013-06-02 03:13:00,66.1,62.1,29.91,SE,128,0.0,3.0,87,0.00,,SKC,0.00,0.00,VWS V14.01,2013-06-02 07:13:00,
2013-06-02 03:15:00,66.1,62.1,29.91,SE,128,1.0,3.0,87,0.00,,SKC,0.00,0.00,VWS V14.01,2013-06-02 07:15:00,
2013-06-02 03:16:00,66.0,62.0,29.91,SE,128,0.0,3.0,87,0.00,,SKC,0.00,0.00,VWS V14.01,2013-06-02 07:16:00,
2013-06-02 03:17:00,66.0,62.0,29.91,SE,128,0.0,3.0,87,0.00,,SKC,0.00,0.00,VWS V14.01,2013-06-02 07:17:00,
2013-06-02 03:18:00,66.0,62.0,29.91,SE,128,0.0,3.0,87,0.00,,SKC,0.00,0.00,VWS V14.01,2013-06-02 07:18:00,
2013-06-02 03:20:00,65.9,62.2,29.91,SE,128,0.0,3.0,88,0.00,,SKC,0.00,0.00,VWS V14.01,2013-06-02 07:20:00,
2013-06-02 03:22:00,65.9,62.2,29.91,SE,128,0.0,3.0,88,0.00,,SKC,0.00,0.00,VWS V14.01,2013-06-02 07:22:00,
2013-06-02 03:23:00,65.9,62.2,29.91,SE,128,0.0,3.0,88,0.00,,SKC,0.00,0.00,VWS V14.01,2013-06-02 07:23:00,
2013-06-02 03:25:00,65.9,62.2,29.91,SE,128,0.0,3.0,88,0.00,,SKC,0.00,0.00,VWS V14.01,2013-06-02 07:25:00,
2013-06-02 03:28:00,65.9,62.2,29.91,SE,128,1.0,3.0,88,0.00,,SKC,0.00,0.00,VWS V14.01,2013-06-02 07:28:00,
2013-06-02 03:29:00,65.9,62.2,29.91,SE,128,1.0,3.0,88,0.00,,SKC,0.00,0.00,VWS V14.01,2013-06-02 07:29:00,
2013-06-02 03:30:00,65.8,62.2,29.91,SE,128,0.0,3.0,88,0.00,,SKC,0.00,0.00,VWS V14.01,2013-06-02 07:30:00,
2013-06-02 03:33:00,65.8,62.2,29.91,SE,128,0.0,0.0,88,0.00,,SKC,0.00,0.00,VWS V14.01,2013-06-02 07:33:00,
2013-06-02 03:34:00,65.8,62.2,29.91,SE,128,0.0,0.0,88,0.00,,SKC,0.00,0.00,VWS V14.01,2013-06-02 07:34:00,
2013-06-02 03:36:00,65.8,62.2,29.91,SE,128,0.0,0.0,88,0.00,,SKC,0.00,0.00,VWS V14.01,2013-06-02 07:36:00,
2013-06-02 03:39:00,65.9,62.2,29.91,SE,128,0.0,1.0,88,0.00,,SKC,0.00,0.00,VWS V14.01,2013-06-02 07:39:00,
2013-06-02 03:40:00,65.9,62.2,29.91,SE,128,2.0,2.0,88,0.00,,SKC,0.00,0.00,VWS V14.01,2013-06-02 07:40:00,
2013-06-02 03:41:00,65.9,62.2,29.91,SE,128,3.0,3.0,88,0.00,,SKC,0.00,0.00,VWS V14.01,2013-06-02 07:41:00,
2013-06-02 03:44:00,65.9,62.2,29.92,SE,128,0.0,3.0,88,0.00,,SKC,0.00,0.00,VWS V14.01,2013-06-02 07:44:00,
2013-06-02 03:45:00,65.9,62.2,29.92,SE,128,0.0,3.0,88,0.00,,SKC,0.00,0.00,VWS V14.01,2013-06-02 07:45:00,
2013-06-02 03:46:00,65.9,62.2,29.91,SE,128,0.0,3.0,88,0.00,,SKC,0.00,0.00,VWS V14.01,2013-06-02 07:46:00,
2013-06-02 03:49:00,65.9,62.2,29.91,SE,128,0.0,3.0,88,0.00,,SKC,0.00,0.00,VWS V14.01,2013-06-02 07:49:00,
2013-06-02 03:50:00,65.9,62.6,29.91,SE,128,0.0,3.0,89,0.00,,SKC,0.00,0.00,VWS V14.01,2013-06-02 07:50:00,
2013-06-02 03:51:00,65.9,62.6,29.91,SE,128,0.0,3.0,89,0.00,,SKC,0.00,0.00,VWS V14.01,2013-06-02 07:51:00,
2013-06-02 03:52:00,65.9,62.6,29.91,SE,128,0.0,3.0,89,0.00,,SKC,0.00,0.00,VWS V14.01,2013-06-02 07:52:00,
2013-06-02 03:54:00,66.0,62.7,29.92,SE,128,1.0,3.0,89,0.00,,SKC,0.00,0.00,VWS V14.01,2013-06-02 07:54:00,
2013-06-02 03:55:00,66.0,62.7,29.92,SE,128,1.0,3.0,89,0.00,,SKC,0.00,0.00,VWS V14.01,2013-06-02 07:55:00,
2013-06-02 03:56:00,66.0,62.7,29.92,SE,128,2.0,3.0,89,0.00,,SKC,0.00,0.00,VWS V14.01,2013-06-02 07:56:00,
2013-06-02 03:57:00,66.0,62.7,29.92,SE,128,1.0,3.0,89,0.00,,SKC,0.00,0.00,VWS V14.01,2013-06-02 07:57:00,
2013-06-02 03:59:00,66.0,62.7,29.92,SE,128,0.0,3.0,89,0.00,,SKC,0.00,0.00,VWS V14.01,2013-06-02 07:59:00,
2013-06-02 04:00:00,66.0,62.7,29.92,SE,128,0.0,3.0,89,0.00,,SKC,0.00,0.00,VWS V14.01,2013-06-02 08:00:00,
2013-06-02 04:01:00,66.0,62.7,29.92,SE,128,0.0,0.0,89,0.00,,SKC,0.00,0.00,VWS V14.01,2013-06-02 08:01:00,
2013-06-02 04:02:00,66.0,62.7,29.92,SE,128,1.0,1.0,89,0.00,,SKC,0.00,0.00,VWS V14.01,2013-06-02 08:02:00,
2013-06-02 04:04:00,66.0,62.7,29.92,SE,128,0.0,1.0,89,0.00,,SKC,0.00,0.00,VWS V14.01,2013-06-02 08:04:00,
2013-06-02 04:05:00,66.1,62.8,29.92,SE,128,0.0,1.0,89,0.00,,SKC,0.00,0.00,VWS V14.01,2013-06-02 08:05:00,
2013-06-02 04:06:00,66.0,62.7,29.91,SE,128,0.0,1.0,89,0.00,,SKC,0.00,0.00,VWS V14.01,2013-06-02 08:06:00,
2013-06-02 04:07:00,66.0,62.7,29.91,SE,128,0.0,1.0,89,0.00,,SKC,0.00,0.00,VWS V14.01,2013-06-02 08:07:00,
2013-06-02 04:10:00,66.0,62.7,29.92,SE,128,0.0,1.0,89,0.00,,SKC,0.00,0.00,VWS V14.01,2013-06-02 08:10:00,
2013-06-02 04:11:00,66.0,62.7,29.92,SE,128,0.0,1.0,89,0.00,,SKC,0.00,0.00,VWS V14.01,2013-06-02 08:11:00,
2013-06-02 04:12:00,66.1,62.8,29.92,SE,128,0.0,1.0,89,0.00,,SKC,0.00,0.00,VWS V14.01,2013-06-02 08:12:00,
2013-06-02 04:15:00,66.0,62.7,29.91,SE,128,0.0,1.0,89,0.00,,SKC,0.00,0.00,VWS V14.01,2013-06-02 08:15:00,
2013-06-02 04:17:00,66.0,62.7,29.91,SE,128,0.0,1.0,89,0.00,,SKC,0.00,0.00,VWS V14.01,2013-06-02 08:17:00,
2013-06-02 04:18:00,66.0,62.7,29.91,SE,128,0.0,1.0,89,0.00,,SKC,0.00,0.00,VWS V14.01,2013-06-02 08:18:00,
2013-06-02 04:20:00,66.0,62.7,29.91,SE,128,2.0,2.0,89,0.00,,SKC,0.00,0.00,VWS V14.01,2013-06-02 08:20:00,
2013-06-02 04:21:00,66.0,62.7,29.91,SE,128,2.0,2.0,89,0.00,,SKC,0.00,0.00,VWS V14.01,2013-06-02 08:21:00,
2013-06-02 04:22:00,66.0,62.7,29.91,SE,128,1.0,2.0,89,0.00,,SKC,0.00,0.00,VWS V14.01,2013-06-02 08:22:00,
2013-06-02 04:23:00,66.0,62.7,29.91,SE,128,1.0,2.0,89,0.00,,SKC,0.00,0.00,VWS V14.01,2013-06-02 08:23:00,
2013-06-02 04:25:00,66.0,62.7,29.91,SE,128,0.0,2.0,89,0.00,,SKC,0.00,0.00,VWS V14.01,2013-06-02 08:25:00,
2013-06-02 04:26:00,66.0,62.7,29.91,SE,128,1.0,2.0,89,0.00,,SKC,0.00,0.00,VWS V14.01,2013-06-02 08:26:00,
2013-06-02 04:28:00,66.0,62.7,29.91,SE,128,0.0,2.0,89,0.00,,SKC,0.00,0.00,VWS V14.01,2013-06-02 08:28:00,
2013-06-02 04:30:00,66.0,62.7,29.91,SE,128,0.0,2.0,89,0.00,,SKC,0.00,0.00,VWS V14.01,2013-06-02 08:30:00,
2013-06-02 04:31:00,66.0,62.7,29.91,SE,128,0.0,2.0,89,0.00,,SKC,0.00,0.00,VWS V14.01,2013-06-02 08:31:00,
2013-06-02 04:33:00,66.0,62.7,29.91,SE,128,1.0,2.0,89,0.00,,SKC,0.00,0.00,VWS V14.01,2013-06-02 08:33:00,
2013-06-02 04:34:00,66.0,62.7,29.91,SE,128,0.0,2.0,89,0.00,,SKC,0.00,0.00,VWS V14.01,2013-06-02 08:34:00,
2013-06-02 04:35:00,66.0,62.7,29.91,SE,128,0.0,2.0,89,0.00,,SKC,0.00,0.00,VWS V14.01,2013-06-02 08:35:00,
2013-06-02 04:36:00,66.0,62.7,29.91,SE,128,1.0,2.0,89,0.00,,SKC,0.00,0.00,VWS V14.01,2013-06-02 08:36:00,
2013-06-02 04:38:00,66.0,62.7,29.91,SE,128,0.0,2.0,89,0.00,,SKC,0.00,0.00,VWS V14.01,2013-06-02 08:38:00,
2013-06-02 04:40:00,66.1,62.8,29.91,SE,128,1.0,2.0,89,0.00,,SKC,0.00,0.00,VWS V14.01,2013-06-02 08:40:00,
2013-06-02 04:41:00,66.1,62.8,29.92,SE,128,2.0,2.0,89,0.00,,SKC,0.00,0.00,VWS V14.01,2013-06-02 08:41:00,
2013-06-02 04:44:00,66.1,62.8,29.91,SE,128,1.0,3.0,89,0.00,,SKC,0.00,0.00,VWS V14.01,2013-06-02 08:44:00,
2013-06-02 04:45:00,66.1,62.8,29.91,SE,128,1.0,3.0,89,0.00,,SKC,0.00,0.00,VWS V14.01,2013-06-02 08:45:00,
2013-06-02 04:46:00,66.2,62.9,29.91,SE,128,1.0,3.0,89,0.00,,SKC,0.00,0.00,VWS V14.01,2013-06-02 08:46:00,
2013-06-02 04:49:00,66.2,62.9,29.91,SE,128,0.0,3.0,89,0.00,,SKC,0.00,0.00,VWS V14.01,2013-06-02 08:49:00,
2013-06-02 04:51:00,66.2,62.9,29.91,SE,128,0.0,3.0,89,0.00,,SKC,0.00,0.00,VWS V14.01,2013-06-02 08:51:00,
2013-06-02 04:52:00,66.2,62.9,29.91,SE,128,0.0,3.0,89,0.00,,SKC,0.00,0.00,VWS V14.01,2013-06-02 08:52:00,
2013-06-02 04:54:00,66.3,63.0,29.91,SE,128,0.0,3.0,89,0.00,,SKC,0.00,0.00,VWS V14.01,2013-06-02 08:54:00,
2013-06-02 04:56:00,66.3,63.0,29.91,SE,128,0.0,3.0,89,0.00,,SKC,0.00,0.00,VWS V14.01,2013-06-02 08:56:00,
2013-06-02 04:57:00,66.3,63.0,29.91,SE,128,0.0,3.0,89,0.00,,SKC,0.00,0.00,VWS V14.01,2013-06-02 08:57:00,
2013-06-02 04:59:00,66.3,63.0,29.91,SE,128,0.0,3.0,89,0.00,,SKC,0.00,0.00,VWS V14.01,2013-06-02 08:59:00,
2013-06-02 05:01:00,66.4,63.1,29.91,SE,128,0.0,3.0,89,0.00,,SKC,0.00,0.00,VWS V14.01,2013-06-02 09:01:00,
2013-06-02 05:02:00,66.4,63.1,29.91,SE,128,0.0,0.0,89,0.00,,SKC,0.00,0.00,VWS V14.01,2013-06-02 09:02:00,
2013-06-02 05:05:00,66.5,63.2,29.91,SE,128,0.0,2.0,89,0.00,,SKC,0.00,0.00,VWS V14.01,2013-06-02 09:05:00,
2013-06-02 05:06:00,66.5,63.2,29.91,SE,128,0.0,2.0,89,0.00,,SKC,0.00,0.00,VWS V14.01,2013-06-02 09:06:00,
2013-06-02 05:07:00,66.6,63.3,29.91,SE,128,0.0,2.0,89,0.00,,SKC,0.00,0.00,VWS V14.01,2013-06-02 09:07:00,
2013-06-02 05:10:00,66.6,63.3,29.91,SE,128,0.0,2.0,89,0.00,,SKC,0.00,0.00,VWS V14.01,2013-06-02 09:10:00,
2013-06-02 05:11:00,66.7,63.4,29.91,SE,128,0.0,2.0,89,0.00,,SKC,0.00,0.00,VWS V14.01,2013-06-02 09:11:00,
2013-06-02 05:12:00,66.7,63.4,29.91,SE,128,0.0,2.0,89,0.00,,SKC,0.00,0.00,VWS V14.01,2013-06-02 09:12:00,
2013-06-02 05:15:00,66.7,63.4,29.91,SE,128,0.0,2.0,89,0.00,,SKC,0.00,0.00,VWS V14.01,2013-06-02 09:15:00,
2013-06-02 05:16:00,66.8,63.5,29.91,SE,128,0.0,2.0,89,0.00,,SKC,0.00,0.00,VWS V14.01,2013-06-02 09:16:00,
2013-06-02 05:17:00,66.8,63.5,29.91,SE,128,1.0,2.0,89,0.00,,SKC,0.00,0.00,VWS V14.01,2013-06-02 09:17:00,
2013-06-02 05:18:00,66.8,63.5,29.91,SE,128,1.0,2.0,89,0.00,,SKC,0.00,0.00,VWS V14.01,2013-06-02 09:18:00,
2013-06-02 05:20:00,66.8,63.5,29.91,SE,128,0.0,2.0,89,0.00,,SKC,0.00,0.00,VWS V14.01,2013-06-02 09:20:00,
2013-06-02 05:21:00,66.8,63.5,29.91,SE,128,0.0,2.0,89,0.00,,SKC,0.00,0.00,VWS V14.01,2013-06-02 09:21:00,
2013-06-02 05:22:00,66.8,63.5,29.91,SE,128,0.0,2.0,89,0.00,,SKC,0.00,0.00,VWS V14.01,2013-06-02 09:22:00,
2013-06-02 05:23:00,66.8,63.5,29.91,SE,128,0.0,2.0,89,0.00,,SKC,0.00,0.00,VWS V14.01,2013-06-02 09:23:00,
2013-06-02 05:25:00,66.8,63.5,29.91,SE,128,0.0,2.0,89,0.00,,SKC,0.00,0.00,VWS V14.01,2013-06-02 09:25:00,
2013-06-02 05:26:00,66.8,63.5,29.91,SE,128,0.0,2.0,89,0.00,,SKC,0.00,0.00,VWS V14.01,2013-06-02 09:26:00,
2013-06-02 05:27:00,66.8,63.5,29.91,SE,128,0.0,2.0,89,0.00,,SKC,0.00,0.00,VWS V14.01,2013-06-02 09:27:00,
2013-06-02 05:28:00,66.8,63.5,29.91,SE,128,0.0,2.0,89,0.00,,SKC,0.00,0.00,VWS V14.01,2013-06-02 09:28:00,
2013-06-02 05:30:00,66.8,63.5,29.91,SE,128,0.0,2.0,89,0.00,,SKC,0.00,0.00,VWS V14.01,2013-06-02 09:30:00,
2013-06-02 05:32:00,66.8,63.5,29.91,SE,128,0.0,1.0,89,0.00,,SKC,0.00,0.00,VWS V14.01,2013-06-02 09:32:00,
2013-06-02 05:33:00,66.8,63.5,29.91,SE,128,0.0,1.0,89,0.00,,SKC,0.00,0.00,VWS V14.01,2013-06-02 09:33:00,
2013-06-02 05:35:00,66.7,63.4,29.91,SE,128,2.0,2.0,89,0.00,,SKC,0.00,0.00,VWS V14.01,2013-06-02 09:35:00,
2013-06-02 05:37:00,66.7,63.4,29.91,SE,128,0.0,2.0,89,0.00,,SKC,0.00,0.00,VWS V14.01,2013-06-02 09:37:00,
2013-06-02 05:38:00,66.7,63.4,29.91,SE,128,1.0,2.0,89,0.00,,SKC,0.00,0.00,VWS V14.01,2013-06-02 09:38:00,
2013-06-02 05:39:00,66.7,63.4,29.91,SE,128,0.0,2.0,89,0.00,,SKC,0.00,0.00,VWS V14.01,2013-06-02 09:39:00,
2013-06-02 05:40:00,66.7,63.4,29.91,SE,128,0.0,2.0,89,0.00,,SKC,0.00,0.00,VWS V14.01,2013-06-02 09:40:00,
2013-06-02 05:42:00,66.6,63.3,29.91,SE,128,0.0,2.0,89,0.00,,SKC,0.00,0.00,VWS V14.01,2013-06-02 09:42:00,
2013-06-02 05:43:00,66.6,63.3,29.91,SE,128,1.0,2.0,89,0.00,,SKC,0.00,0.00,VWS V14.01,2013-06-02 09:43:00,
2013-06-02 05:44:00,66.6,63.3,29.91,SE,128,1.0,2.0,89,0.00,,SKC,0.00,0.00,VWS V14.01,2013-06-02 09:44:00,
2013-06-02 05:45:00,66.6,63.3,29.91,SE,128,0.0,2.0,89,0.00,,SKC,0.00,0.00,VWS V14.01,2013-06-02 09:45:00,
2013-06-02 05:47:00,66.6,63.3,29.91,SE,128,0.0,2.0,89,0.00,,SKC,0.00,0.00,VWS V14.01,2013-06-02 09:47:00,
2013-06-02 05:48:00,66.5,63.2,29.91,SE,128,3.0,3.0,89,0.00,,SKC,0.00,0.00,VWS V14.01,2013-06-02 09:48:00,
2013-06-02 05:49:00,66.5,63.2,29.91,SE,128,2.0,3.0,89,0.00,,SKC,0.00,0.00,VWS V14.01,2013-06-02 09:49:00,
2013-06-02 05:50:00,66.5,63.2,29.91,SE,128,1.0,3.0,89,0.00,,SKC,0.00,0.00,VWS V14.01,2013-06-02 09:50:00,
2013-06-02 05:52:00,66.5,63.5,29.91,SE,128,0.0,3.0,90,0.00,,SKC,0.00,0.00,VWS V14.01,2013-06-02 09:52:00,
2013-06-02 05:53:00,66.5,63.5,29.91,SE,128,1.0,3.0,90,0.00,,SKC,0.00,0.00,VWS V14.01,2013-06-02 09:53:00,
2013-06-02 05:54:00,66.5,63.5,29.91,SE,128,1.0,3.0,90,0.00,,SKC,0.00,0.00,VWS V14.01,2013-06-02 09:54:00,
2013-06-02 05:55:00,66.5,63.5,29.91,SE,128,3.0,3.0,90,0.00,,SKC,0.00,0.00,VWS V14.01,2013-06-02 09:55:00,
2013-06-02 05:58:00,66.4,63.4,29.91,SE,128,0.0,3.0,90,0.00,,SKC,0.00,0.00,VWS V14.01,2013-06-02 09:58:00,
2013-06-02 05:59:00,66.3,63.3,29.91,SE,128,3.0,3.0,90,0.00,,SKC,0.00,0.00,VWS V14.01,2013-06-02 09:59:00,
2013-06-02 06:00:00,66.3,63.3,29.91,SE,128,2.0,3.0,90,0.00,,SKC,0.00,0.00,VWS V14.01,2013-06-02 10:00:00,
2013-06-02 06:01:00,66.3,63.3,29.91,SE,128,0.0,3.0,90,0.00,,SKC,0.00,0.00,VWS V14.01,2013-06-02 10:01:00,
2013-06-02 06:03:00,66.3,63.6,29.91,SE,128,2.0,3.0,91,0.00,,SKC,0.00,0.00,VWS V14.01,2013-06-02 10:03:00,
2013-06-02 06:05:00,66.3,63.6,29.91,SE,128,0.0,3.0,91,0.00,,SKC,0.00,0.00,VWS V14.01,2013-06-02 10:05:00,
2013-06-02 06:06:00,66.3,63.6,29.91,WNW,303,4.0,4.0,91,0.00,,SKC,0.00,0.00,VWS V14.01,2013-06-02 10:06:00,
2013-06-02 06:08:00,66.3,63.6,29.91,NW,319,0.0,4.0,91,0.00,,SKC,0.00,5.00,VWS V14.01,2013-06-02 10:08:00,
2013-06-02 06:10:00,66.3,63.6,29.91,NW,319,0.0,4.0,91,0.00,,SKC,0.00,7.00,VWS V14.01,2013-06-02 10:10:00,
2013-06-02 06:11:00,66.3,63.6,29.91,NW,319,0.0,4.0,91,0.00,,SKC,0.00,7.00,VWS V14.01,2013-06-02 10:11:00,
2013-06-02 06:13:00,66.4,63.7,29.91,NW,319,0.0,4.0,91,0.00,,SKC,0.00,7.00,VWS V14.01,2013-06-02 10:13:00,
2013-06-02 06:14:00,66.4,63.7,29.91,NW,319,0.0,4.0,91,0.00,,SKC,0.00,7.00,VWS V14.01,2013-06-02 10:14:00,
2013-06-02 06:15:00,66.4,63.7,29.91,NW,319,0.0,4.0,91,0.00,,SKC,0.00,9.00,VWS V14.01,2013-06-02 10:15:00,
2013-06-02 06:16:00,66.4,63.7,29.91,NW,319,0.0,4.0,91,0.00,,SKC,0.00,9.00,VWS V14.01,2013-06-02 10:16:00,
2013-06-02 06:18:00,66.5,63.8,29.91,NW,319,0.0,4.0,91,0.00,,SKC,0.00,9.00,VWS V14.01,2013-06-02 10:18:00,
2013-06-02 06:19:00,66.5,63.8,29.91,NW,319,0.0,4.0,91,0.00,,SKC,0.00,9.00,VWS V14.01,2013-06-02 10:19:00,
2013-06-02 06:21:00,66.5,63.8,29.92,NW,319,0.0,4.0,91,0.00,,SKC,0.00,11.00,VWS V14.01,2013-06-02 10:21:00,
2013-06-02 06:23:00,66.5,63.8,29.91,NW,319,0.0,4.0,91,0.00,,SKC,0.00,14.00,VWS V14.01,2013-06-02 10:23:00,
2013-06-02 06:24:00,66.5,63.8,29.91,NW,319,0.0,4.0,91,0.00,,SKC,0.00,14.00,VWS V14.01,2013-06-02 10:24:00,
2013-06-02 06:26:00,66.5,63.8,29.91,NW,319,1.0,4.0,91,0.00,,SKC,0.00,16.00,VWS V14.01,2013-06-02 10:26:00,
2013-06-02 06:29:00,66.5,63.8,29.91,NW,319,0.0,4.0,91,0.00,,SKC,0.00,18.00,VWS V14.01,2013-06-02 10:29:00,
2013-06-02 06:31:00,66.6,63.9,29.91,NW,319,1.0,4.0,91,0.00,,SKC,0.00,19.00,VWS V14.01,2013-06-02 10:31:00,
2013-06-02 06:34:00,66.6,63.9,29.91,NW,319,0.0,3.0,91,0.00,,SKC,0.00,23.00,VWS V14.01,2013-06-02 10:34:00,
2013-06-02 06:36:00,66.7,64.0,29.91,NW,319,0.0,3.0,91,0.00,,SKC,0.00,26.00,VWS V14.01,2013-06-02 10:36:00,
2013-06-02 06:37:00,66.7,64.0,29.91,NW,319,0.0,3.0,91,0.00,,SKC,0.00,28.00,VWS V14.01,2013-06-02 10:37:00,
2013-06-02 06:39:00,66.7,64.0,29.91,NW,319,0.0,3.0,91,0.00,,SKC,0.00,32.00,VWS V14.01,2013-06-02 10:39:00,
2013-06-02 06:40:00,66.7,64.0,29.91,NW,319,2.0,3.0,91,0.00,,SKC,0.00,33.00,VWS V14.01,2013-06-02 10:40:00,
2013-06-02 06:41:00,66.7,64.0,29.91,NW,319,0.0,3.0,91,0.00,,SKC,0.00,33.00,VWS V14.01,2013-06-02 10:41:00,
2013-06-02 06:42:00,66.7,64.0,29.91,NW,319,0.0,3.0,91,0.00,,SKC,0.00,35.00,VWS V14.01,2013-06-02 10:42:00,
2013-06-02 06:44:00,66.8,64.1,29.91,NW,319,0.0,3.0,91,0.00,,SKC,0.00,37.00,VWS V14.01,2013-06-02 10:44:00,
2013-06-02 06:45:00,66.9,64.2,29.91,NW,319,0.0,3.0,91,0.00,,SKC,0.00,39.00,VWS V14.01,2013-06-02 10:45:00,
2013-06-02 06:47:00,66.9,64.2,29.91,NW,319,0.0,3.0,91,0.00,,SKC,0.00,39.00,VWS V14.01,2013-06-02 10:47:00,
2013-06-02 06:49:00,67.0,64.3,29.91,NW,319,2.0,3.0,91,0.00,,SKC,0.00,40.00,VWS V14.01,2013-06-02 10:49:00,
2013-06-02 06:50:00,67.0,64.3,29.91,NW,319,2.0,3.0,91,0.00,,SKC,0.00,42.00,VWS V14.01,2013-06-02 10:50:00,
2013-06-02 06:52:00,67.0,64.3,29.91,NW,319,2.0,3.0,91,0.00,,SKC,0.00,40.00,VWS V14.01,2013-06-02 10:52:00,
2013-06-02 06:53:00,67.0,64.3,29.91,NW,319,2.0,3.0,91,0.00,,SKC,0.00,40.00,VWS V14.01,2013-06-02 10:53:00,
2013-06-02 06:55:00,67.0,64.3,29.92,NW,319,0.0,3.0,91,0.00,,SKC,0.00,39.00,VWS V14.01,2013-06-02 10:55:00,
2013-06-02 06:57:00,67.1,64.4,29.92,NW,319,2.0,3.0,91,0.00,,SKC,0.00,40.00,VWS V14.01,2013-06-02 10:57:00,
2013-06-02 06:58:00,67.1,64.4,29.92,NW,319,3.0,3.0,91,0.00,,SKC,0.00,42.00,VWS V14.01,2013-06-02 10:58:00,
2013-06-02 07:00:00,67.2,64.5,29.92,NW,319,2.0,3.0,91,0.00,,SKC,0.00,47.00,VWS V14.01,2013-06-02 11:00:00,
2013-06-02 07:01:00,67.2,64.5,29.92,NW,319,4.0,4.0,91,0.00,,SKC,0.00,47.00,VWS V14.01,2013-06-02 11:01:00,
2013-06-02 07:02:00,67.2,64.5,29.92,NW,319,0.0,3.0,91,0.00,,SKC,0.00,49.00,VWS V14.01,2013-06-02 11:02:00,
2013-06-02 07:03:00,67.2,64.5,29.92,NW,319,0.0,3.0,91,0.00,,SKC,0.00,49.00,VWS V14.01,2013-06-02 11:03:00,
2013-06-02 07:05:00,67.4,64.7,29.92,NW,319,0.0,3.0,91,0.00,,SKC,0.00,53.00,VWS V14.01,2013-06-02 11:05:00,
2013-06-02 07:06:00,67.4,64.7,29.92,NW,319,0.0,3.0,91,0.00,,SKC,0.00,53.00,VWS V14.01,2013-06-02 11:06:00,
2013-06-02 07:08:00,67.4,64.7,29.92,NW,319,1.0,3.0,91,0.00,,SKC,0.00,54.00,VWS V14.01,2013-06-02 11:08:00,
2013-06-02 07:10:00,67.5,64.8,29.92,NW,319,0.0,3.0,91,0.00,,SKC,0.00,56.00,VWS V14.01,2013-06-02 11:10:00,
2013-06-02 07:11:00,67.5,64.8,29.92,NW,319,0.0,3.0,91,0.00,,SKC,0.00,56.00,VWS V14.01,2013-06-02 11:11:00,
2013-06-02 07:13:00,67.6,64.9,29.92,NW,319,0.0,3.0,91,0.00,,SKC,0.00,65.00,VWS V14.01,2013-06-02 11:13:00,
2013-06-02 07:14:00,67.6,64.6,29.92,NW,319,0.0,3.0,90,0.00,,SKC,0.00,70.00,VWS V14.01,2013-06-02 11:14:00,
2013-06-02 07:16:00,67.6,64.9,29.92,NW,319,0.0,3.0,91,0.00,,SKC,0.00,72.00,VWS V14.01,2013-06-02 11:16:00,
2013-06-02 07:18:00,67.7,65.0,29.92,NW,319,0.0,3.0,91,0.00,,SKC,0.00,72.00,VWS V14.01,2013-06-02 11:18:00,
2013-06-02 07:19:00,67.8,65.1,29.92,NW,319,0.0,3.0,91,0.00,,SKC,0.00,74.00,VWS V14.01,2013-06-02 11:19:00,
2013-06-02 07:21:00,67.9,65.2,29.92,NW,319,1.0,3.0,91,0.00,,SKC,0.00,79.00,VWS V14.01,2013-06-02 11:21:00,
2013-06-02 07:22:00,67.9,65.2,29.92,NW,319,1.0,3.0,91,0.00,,SKC,0.00,79.00,VWS V14.01,2013-06-02 11:22:00,
2013-06-02 07:23:00,67.9,65.2,29.92,NW,319,0.0,3.0,91,0.00,,SKC,0.00,83.00,VWS V14.01,2013-06-02 11:23:00,
2013-06-02 07:24:00,68.0,65.0,29.92,NW,319,0.0,3.0,90,0.00,,SKC,0.00,84.00,VWS V14.01,2013-06-02 11:24:00,
2013-06-02 07:26:00,68.0,65.3,29.92,NW,319,0.0,3.0,91,0.00,,SKC,0.00,86.00,VWS V14.01,2013-06-02 11:26:00,
2013-06-02 07:28:00,68.1,65.4,29.92,NW,319,0.0,3.0,91,0.00,,SKC,0.00,90.00,VWS V14.01,2013-06-02 11:28:00,
2013-06-02 07:29:00,68.1,65.4,29.92,NW,319,1.0,3.0,91,0.00,,SKC,0.00,91.00,VWS V14.01,2013-06-02 11:29:00,
2013-06-02 07:32:00,68.2,65.5,29.92,NW,319,0.0,0.0,91,0.00,,SKC,0.00,97.00,VWS V14.01,2013-06-02 11:32:00,
2013-06-02 07:33:00,68.3,65.6,29.92,NW,319,0.0,1.0,91,0.00,,SKC,0.00,100.00,VWS V14.01,2013-06-02 11:33:00,
2013-06-02 07:34:00,68.3,65.6,29.92,NW,319,1.0,1.0,91,0.00,,SKC,0.00,100.00,VWS V14.01,2013-06-02 11:34:00,
2013-06-02 07:37:00,68.4,65.7,29.92,NW,319,0.0,1.0,91,0.00,,SKC,0.00,98.00,VWS V14.01,2013-06-02 11:37:00,
2013-06-02 07:38:00,68.5,65.8,29.92,NW,319,0.0,1.0,91,0.00,,SKC,0.00,100.00,VWS V14.01,2013-06-02 11:38:00,
2013-06-02 07:39:00,68.5,65.8,29.91,NW,319,0.0,1.0,91,0.00,,SKC,0.00,102.00,VWS V14.01,2013-06-02 11:39:00,
2013-06-02 07:42:00,68.7,66.0,29.91,NW,319,0.0,1.0,91,0.00,,SKC,0.00,102.00,VWS V14.01,2013-06-02 11:42:00,
2013-06-02 07:43:00,68.8,66.1,29.91,NW,319,0.0,1.0,91,0.00,,SKC,0.00,104.00,VWS V14.01,2013-06-02 11:43:00,
2013-06-02 07:44:00,68.8,66.1,29.91,NW,319,0.0,1.0,91,0.00,,SKC,0.00,104.00,VWS V14.01,2013-06-02 11:44:00,
2013-06-02 07:47:00,69.0,66.3,29.92,NW,319,0.0,1.0,91,0.00,,SKC,0.00,100.00,VWS V14.01,2013-06-02 11:47:00,
2013-06-02 07:48:00,69.0,66.3,29.92,NW,319,0.0,1.0,91,0.00,,SKC,0.00,98.00,VWS V14.01,2013-06-02 11:48:00,
2013-06-02 07:49:00,69.1,66.4,29.92,NW,319,0.0,1.0,91,0.00,,SKC,0.00,98.00,VWS V14.01,2013-06-02 11:49:00,
2013-06-02 07:52:00,69.4,66.3,29.92,NW,319,0.0,1.0,90,0.00,,SKC,0.00,97.00,VWS V14.01,2013-06-02 11:52:00,
2013-06-02 07:53:00,69.4,66.3,29.92,NW,319,0.0,1.0,90,0.00,,SKC,0.00,95.00,VWS V14.01,2013-06-02 11:53:00,
2013-06-02 07:54:00,69.4,66.3,29.92,NW,319,0.0,1.0,90,0.00,,SKC,0.00,95.00,VWS V14.01,2013-06-02 11:54:00,
2013-06-02 07:55:00,69.5,66.4,29.92,NW,319,0.0,1.0,90,0.00,,SKC,0.00,95.00,VWS V14.01,2013-06-02 11:55:00,
2013-06-02 07:57:00,69.6,66.5,29.92,NW,319,0.0,1.0,90,0.00,,SKC,0.00,98.00,VWS V14.01,2013-06-02 11:57:00,
2013-06-02 07:58:00,69.7,66.6,29.92,NW,319,0.0,1.0,90,0.00,,SKC,0.00,105.00,VWS V14.01,2013-06-02 11:58:00,
2013-06-02 07:59:00,69.7,66.6,29.92,NW,319,0.0,1.0,90,0.00,,SKC,0.00,105.00,VWS V14.01,2013-06-02 11:59:00,
2013-06-02 08:00:00,69.8,66.7,29.92,NW,319,0.0,1.0,90,0.00,,SKC,0.00,113.00,VWS V14.01,2013-06-02 12:00:00,
2013-06-02 08:02:00,70.0,67.3,29.92,NW,319,0.0,0.0,91,0.00,,SKC,0.00,137.00,VWS V14.01,2013-06-02 12:02:00,
2013-06-02 08:04:00,70.2,67.4,29.92,NW,319,0.0,0.0,91,0.00,,SKC,0.00,151.00,VWS V14.01,2013-06-02 12:04:00,
2013-06-02 08:05:00,70.3,67.2,29.92,NW,319,0.0,1.0,90,0.00,,SKC,0.00,206.00,VWS V14.01,2013-06-02 12:05:00,
2013-06-02 08:06:00,70.4,67.3,29.92,NW,319,0.0,1.0,90,0.00,,SKC,0.00,283.00,VWS V14.01,2013-06-02 12:06:00,
2013-06-02 08:08:00,70.8,67.7,29.92,NW,319,0.0,1.0,90,0.00,,SKC,0.00,148.00,VWS V14.01,2013-06-02 12:08:00,
2013-06-02 08:09:00,70.9,67.5,29.92,NW,319,0.0,1.0,89,0.00,,SKC,0.00,369.00,VWS V14.01,2013-06-02 12:09:00,
2013-06-02 08:10:00,71.0,67.6,29.91,NW,319,0.0,1.0,89,0.00,,SKC,0.00,374.00,VWS V14.01,2013-06-02 12:10:00,
2013-06-02 08:11:00,71.1,67.7,29.92,NW,319,0.0,1.0,89,0.00,,SKC,0.00,353.00,VWS V14.01,2013-06-02 12:11:00,
2013-06-02 08:13:00,71.6,67.5,29.92,NW,319,0.0,1.0,87,0.00,,SKC,0.00,357.00,VWS V14.01,2013-06-02 12:13:00,
2013-06-02 08:14:00,71.7,67.6,29.92,NW,319,0.0,1.0,87,0.00,,SKC,0.00,230.00,VWS V14.01,2013-06-02 12:14:00,
2013-06-02 08:15:00,71.9,67.5,29.92,NW,319,0.0,1.0,86,0.00,,SKC,0.00,169.00,VWS V14.01,2013-06-02 12:15:00,
2013-06-02 08:16:00,71.9,67.2,29.92,NW,319,0.0,1.0,85,0.00,,SKC,0.00,156.00,VWS V14.01,2013-06-02 12:16:00,
2013-06-02 08:18:00,72.2,67.4,29.92,NW,319,0.0,1.0,85,0.00,,SKC,0.00,141.00,VWS V14.01,2013-06-02 12:18:00,
2013-06-02 08:20:00,72.4,67.6,29.92,NW,319,0.0,1.0,85,0.00,,SKC,0.00,151.00,VWS V14.01,2013-06-02 12:20:00,
2013-06-02 08:21:00,72.4,67.6,29.92,NW,319,0.0,1.0,85,0.00,,SKC,0.00,160.00,VWS V14.01,2013-06-02 12:21:00,
2013-06-02 08:23:00,72.5,67.4,29.92,NW,319,0.0,1.0,84,0.00,,SKC,0.00,148.00,VWS V14.01,2013-06-02 12:23:00,
2013-06-02 08:25:00,72.7,67.6,29.92,NW,319,0.0,1.0,84,0.00,,SKC,0.00,144.00,VWS V14.01,2013-06-02 12:25:00,
2013-06-02 08:26:00,72.8,67.7,29.92,NW,319,0.0,1.0,84,0.00,,SKC,0.00,149.00,VWS V14.01,2013-06-02 12:26:00,
2013-06-02 08:29:00,73.1,68.0,29.92,NW,319,0.0,1.0,84,0.00,,SKC,0.00,234.00,VWS V14.01,2013-06-02 12:29:00,
2013-06-02 08:30:00,73.3,67.8,29.92,NW,319,0.0,1.0,83,0.00,,SKC,0.00,302.00,VWS V14.01,2013-06-02 12:30:00,
2013-06-02 08:31:00,73.4,68.3,29.92,NW,319,1.0,1.0,84,0.00,,SKC,0.00,332.00,VWS V14.01,2013-06-02 12:31:00,
2013-06-02 08:34:00,73.6,68.1,29.92,NW,319,0.0,1.0,83,0.00,,SKC,0.00,204.00,VWS V14.01,2013-06-02 12:34:00,
2013-06-02 08:35:00,73.7,67.9,29.92,NW,319,0.0,1.0,82,0.00,,SKC,0.00,199.00,VWS V14.01,2013-06-02 12:35:00,
2013-06-02 08:36:00,73.8,68.0,29.92,NW,319,0.0,1.0,82,0.00,,SKC,0.00,195.00,VWS V14.01,2013-06-02 12:36:00,
2013-06-02 08:40:00,74.0,67.8,29.92,NW,319,0.0,1.0,81,0.00,,SKC,0.00,185.00,VWS V14.01,2013-06-02 12:40:00,
2013-06-02 08:41:00,74.0,67.8,29.92,NW,319,0.0,1.0,81,0.00,,SKC,0.00,181.00,VWS V14.01,2013-06-02 12:41:00,
2013-06-02 08:45:00,74.3,68.1,29.92,NW,319,0.0,1.0,81,0.00,,SKC,0.00,163.00,VWS V14.01,2013-06-02 12:45:00,
2013-06-02 08:46:00,74.4,68.2,29.92,NW,319,0.0,1.0,81,0.00,,SKC,0.00,162.00,VWS V14.01,2013-06-02 12:46:00,
2013-06-02 08:50:00,74.2,67.6,29.92,NW,319,0.0,1.0,80,0.00,,SKC,0.00,163.00,VWS V14.01,2013-06-02 12:50:00,
2013-06-02 08:51:00,74.1,67.5,29.92,NW,319,0.0,1.0,80,0.00,,SKC,0.00,156.00,VWS V14.01,2013-06-02 12:51:00,
2013-06-02 08:52:00,74.1,67.9,29.92,NW,319,0.0,1.0,81,0.00,,SKC,0.00,151.00,VWS V14.01,2013-06-02 12:52:00,
2013-06-02 08:55:00,74.0,68.2,29.92,NW,319,0.0,1.0,82,0.00,,SKC,0.00,167.00,VWS V14.01,2013-06-02 12:55:00,
2013-06-02 08:56:00,73.9,68.1,29.92,NW,319,0.0,1.0,82,0.00,,SKC,0.00,167.00,VWS V14.01,2013-06-02 12:56:00,
2013-06-02 08:57:00,73.9,68.4,29.92,NW,319,0.0,1.0,83,0.00,,SKC,0.00,253.00,VWS V14.01,2013-06-02 12:57:00,
2013-06-02 09:01:00,73.9,68.8,29.92,NW,319,0.0,1.0,84,0.01,,SKC,0.01,174.00,VWS V14.01,2013-06-02 13:01:00,
2013-06-02 09:03:00,73.9,69.1,29.92,NW,319,0.0,0.0,85,0.01,,SKC,0.01,186.00,VWS V14.01,2013-06-02 13:03:00,
2013-06-02 09:06:00,74.1,69.7,29.92,NW,319,0.0,0.0,86,0.01,,SKC,0.01,236.00,VWS V14.01,2013-06-02 13:06:00,
2013-06-02 09:08:00,74.2,69.8,29.92,NW,319,0.0,0.0,86,0.01,,SKC,0.01,232.00,VWS V14.01,2013-06-02 13:08:00,
2013-06-02 09:11:00,74.4,70.3,29.92,NW,319,0.0,0.0,87,0.01,,SKC,0.01,246.00,VWS V14.01,2013-06-02 13:11:00,
2013-06-02 09:12:00,74.4,70.3,29.92,NW,319,0.0,0.0,87,0.01,,SKC,0.01,246.00,VWS V14.01,2013-06-02 13:12:00,
2013-06-02 09:13:00,74.5,70.0,29.92,NW,319,0.0,0.0,86,0.01,,SKC,0.01,404.00,VWS V14.01,2013-06-02 13:13:00,
2013-06-02 09:16:00,74.7,70.9,29.92,NW,319,0.0,0.0,88,0.01,,SKC,0.01,483.00,VWS V14.01,2013-06-02 13:16:00,
2013-06-02 09:17:00,74.8,71.0,29.92,NW,319,0.0,0.0,88,0.01,,SKC,0.01,483.00,VWS V14.01,2013-06-02 13:17:00,
2013-06-02 09:18:00,74.8,71.0,29.92,NW,319,0.0,0.0,88,0.01,,SKC,0.01,190.00,VWS V14.01,2013-06-02 13:18:00,
2013-06-02 09:21:00,74.7,69.9,29.92,NW,319,0.0,0.0,85,0.01,,SKC,0.01,183.00,VWS V14.01,2013-06-02 13:21:00,
2013-06-02 09:22:00,74.7,69.6,29.92,NW,319,0.0,0.0,84,0.01,,SKC,0.01,183.00,VWS V14.01,2013-06-02 13:22:00,
2013-06-02 09:23:00,74.7,69.9,29.92,NW,319,0.0,0.0,85,0.01,,SKC,0.01,186.00,VWS V14.01,2013-06-02 13:23:00,
2013-06-02 09:27:00,74.8,70.3,29.92,NW,319,0.0,0.0,86,0.01,,SKC,0.01,229.00,VWS V14.01,2013-06-02 13:27:00,
2013-06-02 09:28:00,75.0,70.5,29.92,NW,319,0.0,0.0,86,0.01,,SKC,0.01,246.00,VWS V14.01,2013-06-02 13:28:00,
2013-06-02 09:32:00,75.2,70.4,29.92,NW,319,0.0,0.0,85,0.01,,SKC,0.01,255.00,VWS V14.01,2013-06-02 13:32:00,
2013-06-02 09:33:00,75.2,70.4,29.92,NW,319,1.0,1.0,85,0.01,,SKC,0.01,255.00,VWS V14.01,2013-06-02 13:33:00,
2013-06-02 09:34:00,75.3,70.5,29.92,NW,319,0.0,1.0,85,0.01,,SKC,0.01,255.00,VWS V14.01,2013-06-02 13:34:00,
2013-06-02 09:37:00,75.3,70.1,29.92,NW,319,0.0,2.0,84,0.01,,SKC,0.01,257.00,VWS V14.01,2013-06-02 13:37:00,
2013-06-02 09:38:00,75.2,70.0,29.92,NW,319,0.0,2.0,84,0.01,,SKC,0.01,218.00,VWS V14.01,2013-06-02 13:38:00,
2013-06-02 09:39:00,75.3,70.1,29.92,NW,319,0.0,2.0,84,0.01,,SKC,0.01,209.00,VWS V14.01,2013-06-02 13:39:00,
2013-06-02 09:42:00,75.4,70.2,29.92,NW,319,0.0,2.0,84,0.01,,SKC,0.01,265.00,VWS V14.01,2013-06-02 13:42:00,
2013-06-02 09:43:00,75.4,70.2,29.92,NW,319,0.0,2.0,84,0.01,,SKC,0.01,292.00,VWS V14.01,2013-06-02 13:43:00,
2013-06-02 09:45:00,75.5,70.0,29.92,NW,319,0.0,2.0,83,0.01,,SKC,0.01,329.00,VWS V14.01,2013-06-02 13:45:00,
2013-06-02 09:47:00,75.7,70.5,29.92,NW,319,0.0,2.0,84,0.01,,SKC,0.01,334.00,VWS V14.01,2013-06-02 13:47:00,
2013-06-02 09:48:00,75.7,70.5,29.92,NW,319,1.0,2.0,84,0.01,,SKC,0.01,348.00,VWS V14.01,2013-06-02 13:48:00,
2013-06-02 09:50:00,75.9,70.7,29.92,NW,319,0.0,2.0,84,0.01,,SKC,0.01,318.00,VWS V14.01,2013-06-02 13:50:00,
2013-06-02 09:53:00,76.1,70.6,29.92,NW,319,0.0,2.0,83,0.01,,SKC,0.01,348.00,VWS V14.01,2013-06-02 13:53:00,
2013-06-02 09:54:00,76.1,70.6,29.92,NW,319,0.0,2.0,83,0.01,,SKC,0.01,396.00,VWS V14.01,2013-06-02 13:54:00,
2013-06-02 09:55:00,76.2,70.7,29.92,NW,319,1.0,2.0,83,0.01,,SKC,0.01,387.00,VWS V14.01,2013-06-02 13:55:00,
2013-06-02 09:58:00,76.2,69.9,29.92,NW,319,1.0,3.0,81,0.01,,SKC,0.01,387.00,VWS V14.01,2013-06-02 13:58:00,
2013-06-02 09:59:00,76.2,69.9,29.92,WNW,286,0.0,3.0,81,0.01,,SKC,0.01,849.00,VWS V14.01,2013-06-02 13:59:00,
2013-06-02 10:00:00,76.3,70.4,29.92,WNW,284,2.0,3.0,82,0.01,,SKC,0.01,849.00,VWS V14.01,2013-06-02 14:00:00,
2013-06-02 10:03:00,76.3,70.1,29.92,South,184,0.0,2.0,81,0.00,,SKC,0.01,267.00,VWS V14.01,2013-06-02 14:03:00,
2013-06-02 10:04:00,76.4,70.1,29.92,South,183,1.0,2.0,81,0.00,,SKC,0.01,246.00,VWS V14.01,2013-06-02 14:04:00,
2013-06-02 10:05:00,76.4,70.1,29.91,SSW,192,4.0,4.0,81,0.00,,SKC,0.01,227.00,VWS V14.01,2013-06-02 14:05:00,
2013-06-02 10:09:00,75.9,69.3,29.92,SSE,148,0.0,5.0,80,0.00,,SKC,0.01,156.00,VWS V14.01,2013-06-02 14:09:00,
2013-06-02 10:10:00,75.8,69.6,29.92,SSE,148,2.0,5.0,81,0.00,,SKC,0.01,151.00,VWS V14.01,2013-06-02 14:10:00,
2013-06-02 10:14:00,75.3,69.1,29.92,SE,142,1.0,5.0,81,0.00,,SKC,0.01,153.00,VWS V14.01,2013-06-02 14:14:00,
2013-06-02 10:15:00,75.2,69.0,29.92,SE,142,1.0,5.0,81,0.00,,SKC,0.01,158.00,VWS V14.01,2013-06-02 14:15:00,
2013-06-02 10:19:00,74.9,69.4,29.92,SE,142,4.0,5.0,83,0.00,,SKC,0.01,181.00,VWS V14.01,2013-06-02 14:19:00,
2013-06-02 10:20:00,74.9,69.4,29.92,SE,142,4.0,5.0,83,0.00,,SKC,0.01,181.00,VWS V14.01,2013-06-02 14:20:00,
2013-06-02 10:24:00,74.8,69.7,29.92,SE,142,1.0,5.0,84,0.00,,SKC,0.01,165.00,VWS V14.01,2013-06-02 14:24:00,
2013-06-02 10:25:00,74.8,69.7,29.92,SE,142,1.0,5.0,84,0.00,,SKC,0.01,163.00,VWS V14.01,2013-06-02 14:25:00,
2013-06-02 10:26:00,74.7,69.2,29.92,SE,142,0.0,5.0,83,0.00,,SKC,0.01,162.00,VWS V14.01,2013-06-02 14:26:00,
2013-06-02 10:29:00,74.7,69.6,29.93,SE,142,0.0,5.0,84,0.00,,SKC,0.01,162.00,VWS V14.01,2013-06-02 14:29:00,
2013-06-02 10:30:00,74.8,69.7,29.93,SE,142,1.0,5.0,84,0.00,,SKC,0.01,160.00,VWS V14.01,2013-06-02 14:30:00,
2013-06-02 10:31:00,74.8,70.0,29.93,SE,142,0.0,5.0,85,0.00,,SKC,0.01,160.00,VWS V14.01,2013-06-02 14:31:00,
2013-06-02 10:35:00,74.8,70.0,29.93,SE,142,3.0,3.0,85,0.00,,SKC,0.01,151.00,VWS V14.01,2013-06-02 14:35:00,
2013-06-02 10:36:00,74.7,69.6,29.93,SE,142,0.0,3.0,84,0.00,,SKC,0.01,144.00,VWS V14.01,2013-06-02 14:36:00,
2013-06-02 10:37:00,74.7,69.6,29.93,SE,142,0.0,3.0,84,0.00,,SKC,0.01,141.00,VWS V14.01,2013-06-02 14:37:00,
2013-06-02 10:40:00,74.5,69.3,29.93,SE,142,2.0,3.0,84,0.00,,SKC,0.01,135.00,VWS V14.01,2013-06-02 14:40:00,
2013-06-02 10:41:00,74.4,69.3,29.93,SE,143,0.0,3.0,84,0.00,,SKC,0.01,137.00,VWS V14.01,2013-06-02 14:41:00,
2013-06-02 10:42:00,74.3,69.5,29.93,SE,143,0.0,3.0,85,0.00,,SKC,0.01,139.00,VWS V14.01,2013-06-02 14:42:00,
2013-06-02 10:45:00,74.1,69.3,29.93,SE,144,2.0,4.0,85,0.00,,SKC,0.01,132.00,VWS V14.01,2013-06-02 14:45:00,
2013-06-02 10:46:00,74.1,69.3,29.93,SE,144,1.0,4.0,85,0.00,,SKC,0.01,132.00,VWS V14.01,2013-06-02 14:46:00,
2013-06-02 10:47:00,74.0,69.2,29.93,SE,144,1.0,5.0,85,0.00,,SKC,0.01,127.00,VWS V14.01,2013-06-02 14:47:00,
2013-06-02 10:50:00,73.8,69.0,29.93,SE,144,5.0,5.0,85,0.00,,SKC,0.01,132.00,VWS V14.01,2013-06-02 14:50:00,
2013-06-02 10:51:00,73.8,69.0,29.93,SE,144,1.0,5.0,85,0.00,,SKC,0.01,132.00,VWS V14.01,2013-06-02 14:51:00,
2013-06-02 10:52:00,73.7,68.9,29.93,SE,141,3.0,6.0,85,0.00,,SKC,0.01,146.00,VWS V14.01,2013-06-02 14:52:00,
2013-06-02 10:56:00,73.6,68.8,29.93,SE,142,3.0,6.0,85,0.00,,SKC,0.01,163.00,VWS V14.01,2013-06-02 14:56:00,
2013-06-02 10:57:00,73.6,68.8,29.93,SE,141,1.0,6.0,85,0.00,,SKC,0.01,163.00,VWS V14.01,2013-06-02 14:57:00,
2013-06-02 11:01:00,73.5,68.7,29.93,SE,141,3.0,6.0,85,0.00,,SKC,0.01,171.00,VWS V14.01,2013-06-02 15:01:00,
2013-06-02 11:03:00,73.5,69.1,29.93,SE,140,1.0,4.0,86,0.00,,SKC,0.01,174.00,VWS V14.01,2013-06-02 15:03:00,
2013-06-02 11:06:00,73.5,68.7,29.93,SE,140,3.0,7.0,85,0.00,,SKC,0.01,195.00,VWS V14.01,2013-06-02 15:06:00,
2013-06-02 11:07:00,73.4,68.6,29.93,SE,140,0.0,7.0,85,0.00,,SKC,0.01,202.00,VWS V14.01,2013-06-02 15:07:00,
2013-06-02 11:08:00,73.5,69.1,29.93,SE,140,3.0,7.0,86,0.00,,SKC,0.01,214.00,VWS V14.01,2013-06-02 15:08:00,
2013-06-02 11:11:00,73.4,69.0,29.93,SE,140,1.0,7.0,86,0.00,,SKC,0.01,225.00,VWS V14.01,2013-06-02 15:11:00,
2013-06-02 11:12:00,73.4,69.0,29.93,SE,140,2.0,7.0,86,0.00,,SKC,0.01,232.00,VWS V14.01,2013-06-02 15:12:00,
2013-06-02 11:13:00,73.5,69.1,29.93,SE,140,2.0,7.0,86,0.00,,SKC,0.01,239.00,VWS V14.01,2013-06-02 15:13:00,
2013-06-02 11:16:00,73.6,69.5,29.93,SE,140,1.0,7.0,87,0.00,,SKC,0.01,248.00,VWS V14.01,2013-06-02 15:16:00,
2013-06-02 11:17:00,73.7,69.6,29.93,SE,140,0.0,7.0,87,0.00,,SKC,0.01,243.00,VWS V14.01,2013-06-02 15:17:00,
2013-06-02 11:18:00,73.8,69.3,29.93,SE,140,2.0,7.0,86,0.00,,SKC,0.01,236.00,VWS V14.01,2013-06-02 15:18:00,
2013-06-02 11:21:00,73.8,69.3,29.93,SE,140,1.0,7.0,86,0.00,,SKC,0.01,204.00,VWS V14.01,2013-06-02 15:21:00,
2013-06-02 11:22:00,73.8,69.3,29.93,SE,140,1.0,7.0,86,0.00,,SKC,0.01,200.00,VWS V14.01,2013-06-02 15:22:00,
2013-06-02 11:23:00,73.8,69.3,29.94,SE,140,0.0,7.0,86,0.00,,SKC,0.01,200.00,VWS V14.01,2013-06-02 15:23:00,
2013-06-02 11:24:00,73.8,69.3,29.94,SE,140,1.0,7.0,86,0.00,,SKC,0.01,207.00,VWS V14.01,2013-06-02 15:24:00,
2013-06-02 11:26:00,73.7,69.3,29.93,SE,140,3.0,7.0,86,0.00,,SKC,0.01,225.00,VWS V14.01,2013-06-02 15:26:00,
2013-06-02 11:27:00,73.8,69.3,29.94,SE,140,0.0,7.0,86,0.00,,SKC,0.01,218.00,VWS V14.01,2013-06-02 15:27:00,
2013-06-02 11:28:00,73.8,69.3,29.94,SE,140,1.0,7.0,86,0.00,,SKC,0.01,213.00,VWS V14.01,2013-06-02 15:28:00,
2013-06-02 11:29:00,73.8,69.3,29.93,SE,140,1.0,7.0,86,0.00,,SKC,0.01,209.00,VWS V14.01,2013-06-02 15:29:00,
2013-06-02 11:31:00,73.7,69.3,29.94,SE,140,4.0,4.0,86,0.00,,SKC,0.01,206.00,VWS V14.01,2013-06-02 15:31:00,
2013-06-02 11:33:00,73.6,69.2,29.94,SE,140,4.0,5.0,86,0.00,,SKC,0.01,207.00,VWS V14.01,2013-06-02 15:33:00,
2013-06-02 11:34:00,73.6,69.2,29.94,SE,140,2.0,5.0,86,0.00,,SKC,0.01,207.00,VWS V14.01,2013-06-02 15:34:00,
2013-06-02 11:37:00,73.5,69.4,29.94,SE,140,0.0,5.0,87,0.00,,SKC,0.01,223.00,VWS V14.01,2013-06-02 15:37:00,
2013-06-02 11:38:00,73.5,69.4,29.94,SE,140,2.0,5.0,87,0.00,,SKC,0.01,213.00,VWS V14.01,2013-06-02 15:38:00,
2013-06-02 11:39:00,73.5,69.4,29.94,SE,140,1.0,5.0,87,0.00,,SKC,0.01,213.00,VWS V14.01,2013-06-02 15:39:00,
2013-06-02 11:40:00,73.5,69.4,29.94,SE,140,1.0,5.0,87,0.00,,SKC,0.01,190.00,VWS V14.01,2013-06-02 15:40:00,
2013-06-02 11:42:00,73.5,69.4,29.94,SE,140,0.0,5.0,87,0.00,,SKC,0.01,171.00,VWS V14.01,2013-06-02 15:42:00,
2013-06-02 11:44:00,73.5,69.7,29.94,SE,140,0.0,5.0,88,0.00,,SKC,0.01,163.00,VWS V14.01,2013-06-02 15:44:00,
2013-06-02 11:45:00,73.6,69.8,29.94,SE,140,0.0,5.0,88,0.01,,SKC,0.02,172.00,VWS V14.01,2013-06-02 15:45:00,
2013-06-02 11:48:00,73.6,69.5,29.94,SE,140,0.0,5.0,87,0.01,,SKC,0.02,192.00,VWS V14.01,2013-06-02 15:48:00,
2013-06-02 11:49:00,73.5,69.4,29.94,SE,140,0.0,5.0,87,0.01,,SKC,0.02,197.00,VWS V14.01,2013-06-02 15:49:00,
2013-06-02 11:50:00,73.5,69.4,29.94,SE,140,0.0,5.0,87,0.01,,SKC,0.02,207.00,VWS V14.01,2013-06-02 15:50:00,
2013-06-02 11:53:00,73.5,69.7,29.94,SE,140,0.0,5.0,88,0.01,,SKC,0.02,229.00,VWS V14.01,2013-06-02 15:53:00,
2013-06-02 11:54:00,73.5,69.7,29.94,SE,140,0.0,5.0,88,0.01,,SKC,0.02,234.00,VWS V14.01,2013-06-02 15:54:00,
2013-06-02 11:55:00,73.6,70.2,29.93,SE,140,0.0,5.0,89,0.01,,SKC,0.02,244.00,VWS V14.01,2013-06-02 15:55:00,
2013-06-02 11:58:00,73.7,70.3,29.94,SE,140,0.0,5.0,89,0.01,,SKC,0.02,251.00,VWS V14.01,2013-06-02 15:58:00,
2013-06-02 11:59:00,73.8,70.4,29.93,SE,140,0.0,5.0,89,0.01,,SKC,0.02,253.00,VWS V14.01,2013-06-02 15:59:00,
2013-06-02 12:00:00,74.0,70.6,29.94,SE,140,0.0,5.0,89,0.01,,SKC,0.02,258.00,VWS V14.01,2013-06-02 16:00:00,
2013-06-02 12:03:00,74.2,70.8,29.94,SE,140,0.0,1.0,89,0.01,,SKC,0.02,278.00,VWS V14.01,2013-06-02 16:03:00,
2013-06-02 12:04:00,74.2,70.8,29.94,SE,140,0.0,1.0,89,0.01,,SKC,0.02,287.00,VWS V14.01,2013-06-02 16:04:00,
2013-06-02 12:05:00,74.3,70.8,29.94,SE,140,0.0,1.0,89,0.01,,SKC,0.02,295.00,VWS V14.01,2013-06-02 16:05:00,
2013-06-02 12:08:00,74.4,70.9,29.93,SE,140,0.0,1.0,89,0.01,,SKC,0.02,362.00,VWS V14.01,2013-06-02 16:08:00,
2013-06-02 12:09:00,74.5,71.1,29.93,SE,140,0.0,1.0,89,0.01,,SKC,0.02,394.00,VWS V14.01,2013-06-02 16:09:00,
2013-06-02 12:10:00,74.5,71.1,29.93,SE,140,0.0,1.0,89,0.01,,SKC,0.02,443.00,VWS V14.01,2013-06-02 16:10:00,
2013-06-02 12:13:00,74.8,71.0,29.94,SE,140,0.0,1.0,88,0.01,,SKC,0.02,424.00,VWS V14.01,2013-06-02 16:13:00,
2013-06-02 12:15:00,75.1,71.0,29.94,SE,140,0.0,1.0,87,0.01,,SKC,0.02,346.00,VWS V14.01,2013-06-02 16:15:00,
2013-06-02 12:19:00,75.3,70.8,29.94,SE,139,4.0,4.0,86,0.01,,SKC,0.02,257.00,VWS V14.01,2013-06-02 16:19:00,
2013-06-02 12:20:00,75.3,70.5,29.94,SE,139,6.0,6.0,85,0.01,,SKC,0.02,236.00,VWS V14.01,2013-06-02 16:20:00,
2013-06-02 12:21:00,75.3,70.1,29.94,SE,139,3.0,6.0,84,0.01,,SKC,0.02,216.00,VWS V14.01,2013-06-02 16:21:00,
2013-06-02 12:24:00,74.8,69.3,29.94,SE,140,3.0,6.0,83,0.01,,SKC,0.02,163.00,VWS V14.01,2013-06-02 16:24:00,
2013-06-02 12:25:00,74.6,69.1,29.94,SSW,207,0.0,6.0,83,0.01,,SKC,0.02,162.00,VWS V14.01,2013-06-02 16:25:00,
2013-06-02 12:26:00,74.5,69.3,29.94,SSW,196,1.0,6.0,84,0.01,,SKC,0.02,162.00,VWS V14.01,2013-06-02 16:26:00,
2013-06-02 12:29:00,74.2,69.4,29.94,South,184,0.0,6.0,85,0.01,,SKC,0.02,174.00,VWS V14.01,2013-06-02 16:29:00,
2013-06-02 12:31:00,74.1,69.3,29.94,South,184,0.0,6.0,85,0.01,,SKC,0.02,165.00,VWS V14.01,2013-06-02 16:31:00,
2013-06-02 12:34:00,74.0,69.6,29.94,SSW,204,3.0,4.0,86,0.01,,SKC,0.02,91.00,VWS V14.01,2013-06-02 16:34:00,
2013-06-02 12:36:00,73.9,69.4,29.93,SSW,193,0.0,4.0,86,0.01,,SKC,0.02,83.00,VWS V14.01,2013-06-02 16:36:00,
2013-06-02 12:40:00,73.9,69.4,29.94,SSW,193,0.0,4.0,86,0.01,,SKC,0.02,70.00,VWS V14.01,2013-06-02 16:40:00,
2013-06-02 12:41:00,73.9,69.4,29.94,SSW,193,0.0,4.0,86,0.01,,SKC,0.02,70.00,VWS V14.01,2013-06-02 16:41:00,
2013-06-02 12:42:00,73.9,69.4,29.94,SSW,193,0.0,4.0,86,0.01,,SKC,0.02,70.00,VWS V14.01,2013-06-02 16:42:00,
2013-06-02 12:45:00,73.9,69.8,29.94,SSW,193,0.0,4.0,87,0.01,,SKC,0.02,60.00,VWS V14.01,2013-06-02 16:45:00,
2013-06-02 12:46:00,73.9,69.8,29.94,SSW,193,0.0,4.0,87,0.01,,SKC,0.02,58.00,VWS V14.01,2013-06-02 16:46:00,
2013-06-02 12:47:00,73.9,69.4,29.94,SSW,193,1.0,4.0,86,0.01,,SKC,0.02,53.00,VWS V14.01,2013-06-02 16:47:00,
2013-06-02 12:50:00,73.5,69.1,29.94,SSW,193,0.0,4.0,86,0.01,,SKC,0.02,40.00,VWS V14.01,2013-06-02 16:50:00,
2013-06-02 12:51:00,73.5,69.1,29.94,SSW,193,0.0,4.0,86,0.01,,SKC,0.02,44.00,VWS V14.01,2013-06-02 16:51:00,
2013-06-02 12:52:00,73.4,69.3,29.94,SSW,193,0.0,4.0,87,0.01,,SKC,0.02,47.00,VWS V14.01,2013-06-02 16:52:00,
2013-06-02 12:53:00,73.4,69.3,29.94,SSW,193,0.0,4.0,87,0.01,,SKC,0.02,51.00,VWS V14.01,2013-06-02 16:53:00,
2013-06-02 12:55:00,73.4,69.6,29.93,SSW,193,0.0,4.0,88,0.02,,SKC,0.03,60.00,VWS V14.01,2013-06-02 16:55:00,
2013-06-02 12:56:00,73.4,69.6,29.93,SSW,193,0.0,4.0,88,0.02,,SKC,0.03,62.00,VWS V14.01,2013-06-02 16:56:00,
2013-06-02 12:57:00,73.4,69.6,29.93,SSW,193,0.0,4.0,88,0.02,,SKC,0.03,62.00,VWS V14.01,2013-06-02 16:57:00,
2013-06-02 12:58:00,73.4,69.6,29.93,SSW,193,0.0,4.0,88,0.02,,SKC,0.03,60.00,VWS V14.01,2013-06-02 16:58:00,
2013-06-02 13:00:00,73.5,69.7,29.93,SSW,193,0.0,4.0,88,0.02,,SKC,0.03,62.00,VWS V14.01,2013-06-02 17:00:00,
2013-06-02 13:01:00,73.5,70.1,29.93,SSW,193,0.0,0.0,89,0.01,,SKC,0.03,63.00,VWS V14.01,2013-06-02 17:01:00,
2013-06-02 13:02:00,73.5,70.1,29.93,SSW,193,0.0,0.0,89,0.01,,SKC,0.03,67.00,VWS V14.01,2013-06-02 17:02:00,
2013-06-02 13:03:00,73.6,70.2,29.93,SSW,193,0.0,0.0,89,0.01,,SKC,0.03,70.00,VWS V14.01,2013-06-02 17:03:00,
2013-06-02 13:06:00,73.6,70.5,29.93,SSW,193,0.0,0.0,90,0.01,,SKC,0.03,77.00,VWS V14.01,2013-06-02 17:06:00,
2013-06-02 13:07:00,73.6,70.2,29.93,SSW,193,0.0,0.0,89,0.01,,SKC,0.03,79.00,VWS V14.01,2013-06-02 17:07:00,
2013-06-02 13:08:00,73.6,70.2,29.93,SSW,193,0.0,0.0,89,0.01,,SKC,0.03,79.00,VWS V14.01,2013-06-02 17:08:00,
2013-06-02 13:11:00,73.5,70.4,29.94,SSW,193,0.0,0.0,90,0.02,,SKC,0.04,54.00,VWS V14.01,2013-06-02 17:11:00,
2013-06-02 13:12:00,73.4,70.3,29.94,SSW,193,0.0,0.0,90,0.02,,SKC,0.04,47.00,VWS V14.01,2013-06-02 17:12:00,
2013-06-02 13:13:00,73.3,70.5,29.94,SSW,193,0.0,0.0,91,0.02,,SKC,0.04,47.00,VWS V14.01,2013-06-02 17:13:00,
2013-06-02 13:16:00,73.1,70.3,29.94,SSW,193,0.0,0.0,91,0.02,,SKC,0.04,25.00,VWS V14.01,2013-06-02 17:16:00,
2013-06-02 13:17:00,73.1,70.6,29.93,SSW,193,0.0,0.0,92,0.02,,SKC,0.04,26.00,VWS V14.01,2013-06-02 17:17:00,
2013-06-02 13:18:00,73.1,70.6,29.93,SSW,193,0.0,0.0,92,0.02,,SKC,0.04,30.00,VWS V14.01,2013-06-02 17:18:00,
2013-06-02 13:19:00,73.1,70.6,29.93,SSW,193,0.0,0.0,92,0.02,,SKC,0.04,30.00,VWS V14.01,2013-06-02 17:19:00,
2013-06-02 13:21:00,73.1,70.6,29.93,SSW,193,0.0,1.0,92,0.03,,SKC,0.05,44.00,VWS V14.01,2013-06-02 17:21:00,
2013-06-02 13:22:00,73.1,70.6,29.93,SSW,193,1.0,1.0,92,0.03,,SKC,0.05,44.00,VWS V14.01,2013-06-02 17:22:00,
2013-06-02 13:23:00,73.0,70.5,29.93,NW,323,2.0,2.0,92,0.04,,SKC,0.06,44.00,VWS V14.01,2013-06-02 17:23:00,
2013-06-02 13:24:00,73.0,70.5,29.94,NW,323,0.0,2.0,92,0.04,,SKC,0.06,42.00,VWS V14.01,2013-06-02 17:24:00,
2013-06-02 13:27:00,72.9,70.4,29.94,NW,323,2.0,2.0,92,0.04,,SKC,0.06,35.00,VWS V14.01,2013-06-02 17:27:00,
2013-06-02 13:28:00,72.9,70.4,29.94,NW,323,0.0,2.0,92,0.04,,SKC,0.06,32.00,VWS V14.01,2013-06-02 17:28:00,
2013-06-02 13:29:00,72.8,70.3,29.95,NW,323,0.0,2.0,92,0.04,,SKC,0.06,21.00,VWS V14.01,2013-06-02 17:29:00,
2013-06-02 13:32:00,72.7,70.2,29.95,WNW,301,0.0,3.0,92,0.05,,SKC,0.07,14.00,VWS V14.01,2013-06-02 17:32:00,
2013-06-02 13:33:00,72.7,70.2,29.95,WNW,301,1.0,3.0,92,0.05,,SKC,0.07,12.00,VWS V14.01,2013-06-02 17:33:00,
2013-06-02 13:34:00,72.6,70.2,29.95,WNW,301,1.0,3.0,92,0.06,,SKC,0.08,12.00,VWS V14.01,2013-06-02 17:34:00,
2013-06-02 13:37:00,71.6,68.5,29.95,WSW,244,4.0,14.0,90,0.16,,SKC,0.18,16.00,VWS V14.01,2013-06-02 17:37:00,
2013-06-02 13:38:00,70.9,67.8,29.95,SW,227,0.0,14.0,90,0.16,,SKC,0.18,16.00,VWS V14.01,2013-06-02 17:38:00,
2013-06-02 13:39:00,70.3,67.6,29.95,South,185,7.0,14.0,91,0.20,,SKC,0.22,16.00,VWS V14.01,2013-06-02 17:39:00,
2013-06-02 13:42:00,69.1,67.0,29.95,SW,221,4.0,14.0,93,0.36,,SKC,0.38,16.00,VWS V14.01,2013-06-02 17:42:00,
2013-06-02 13:43:00,69.0,66.9,29.95,SW,224,1.0,14.0,93,0.37,,SKC,0.39,18.00,VWS V14.01,2013-06-02 17:43:00,
2013-06-02 13:44:00,68.9,66.8,29.95,North,351,7.0,14.0,93,0.39,,SKC,0.41,19.00,VWS V14.01,2013-06-02 17:44:00,
2013-06-02 13:47:00,68.5,66.7,29.95,SSW,210,6.0,14.0,94,0.46,,SKC,0.48,25.00,VWS V14.01,2013-06-02 17:47:00,
2013-06-02 13:48:00,68.5,66.7,29.95,SW,222,3.0,14.0,94,0.46,,SKC,0.48,25.00,VWS V14.01,2013-06-02 17:48:00,
2013-06-02 13:49:00,68.4,66.9,29.95,SW,219,3.0,14.0,95,0.47,,SKC,0.49,25.00,VWS V14.01,2013-06-02 17:49:00,
2013-06-02 13:50:00,68.3,66.8,29.95,SSW,210,0.0,14.0,95,0.48,,SKC,0.50,25.00,VWS V14.01,2013-06-02 17:50:00,
2013-06-02 13:52:00,68.1,66.6,29.95,SSW,209,0.0,14.0,95,0.49,,SKC,0.51,23.00,VWS V14.01,2013-06-02 17:52:00,
2013-06-02 13:53:00,68.1,66.6,29.95,SSW,209,0.0,14.0,95,0.49,,SKC,0.51,23.00,VWS V14.01,2013-06-02 17:53:00,
2013-06-02 13:54:00,68.1,66.6,29.94,SSW,209,1.0,14.0,95,0.49,,SKC,0.51,23.00,VWS V14.01,2013-06-02 17:54:00,
2013-06-02 13:55:00,68.1,66.6,29.94,West,281,1.0,14.0,95,0.50,,SKC,0.52,23.00,VWS V14.01,2013-06-02 17:55:00,
2013-06-02 13:57:00,68.1,66.9,29.94,NNW,330,2.0,14.0,96,0.50,,SKC,0.52,21.00,VWS V14.01,2013-06-02 17:57:00,
2013-06-02 13:59:00,68.1,66.9,29.94,NNW,338,4.0,14.0,96,0.51,,SKC,0.53,21.00,VWS V14.01,2013-06-02 17:59:00,
2013-06-02 14:00:00,68.1,66.9,29.94,NNW,339,2.0,14.0,96,0.51,,SKC,0.53,19.00,VWS V14.01,2013-06-02 18:00:00,
2013-06-02 14:01:00,68.1,66.9,29.94,NNW,339,2.0,14.0,96,0.51,,SKC,0.53,18.00,VWS V14.01,2013-06-02 18:01:00,
2013-06-02 14:03:00,68.1,66.9,29.94,NNW,339,2.0,2.0,96,0.50,,SKC,0.53,18.00,VWS V14.01,2013-06-02 18:03:00,
2013-06-02 14:04:00,68.1,66.9,29.94,NNW,339,0.0,2.0,96,0.50,,SKC,0.53,18.00,VWS V14.01,2013-06-02 18:04:00,
2013-06-02 14:05:00,68.1,66.9,29.94,NNW,339,1.0,2.0,96,0.51,,SKC,0.54,16.00,VWS V14.01,2013-06-02 18:05:00,
2013-06-02 14:06:00,68.0,66.8,29.94,NNW,339,1.0,2.0,96,0.51,,SKC,0.54,16.00,VWS V14.01,2013-06-02 18:06:00,
2013-06-02 14:08:00,68.0,66.8,29.94,NNW,339,0.0,2.0,96,0.51,,SKC,0.54,18.00,VWS V14.01,2013-06-02 18:08:00,
2013-06-02 14:09:00,68.0,66.8,29.94,NNW,339,0.0,2.0,96,0.51,,SKC,0.54,18.00,VWS V14.01,2013-06-02 18:09:00,
2013-06-02 14:10:00,68.1,66.9,29.94,NNE,15,2.0,2.0,96,0.51,,SKC,0.54,18.00,VWS V14.01,2013-06-02 18:10:00,
2013-06-02 14:11:00,68.1,66.9,29.94,NNE,25,3.0,3.0,96,0.51,,SKC,0.54,18.00,VWS V14.01,2013-06-02 18:11:00,
2013-06-02 14:13:00,68.1,66.9,29.94,SE,132,1.0,3.0,96,0.52,,SKC,0.55,19.00,VWS V14.01,2013-06-02 18:13:00,
2013-06-02 14:14:00,68.1,66.9,29.95,SSE,165,3.0,5.0,96,0.52,,SKC,0.55,19.00,VWS V14.01,2013-06-02 18:14:00,
2013-06-02 14:15:00,68.1,66.9,29.95,SE,140,4.0,6.0,96,0.52,,SKC,0.55,19.00,VWS V14.01,2013-06-02 18:15:00,
2013-06-02 14:16:00,68.0,66.8,29.95,SE,128,7.0,7.0,96,0.52,,SKC,0.55,21.00,VWS V14.01,2013-06-02 18:16:00,
2013-06-02 14:18:00,68.0,66.8,29.94,SE,137,3.0,7.0,96,0.52,,SKC,0.55,25.00,VWS V14.01,2013-06-02 18:18:00,
2013-06-02 14:19:00,68.0,66.8,29.94,SE,137,2.0,7.0,96,0.52,,SKC,0.55,32.00,VWS V14.01,2013-06-02 18:19:00,
2013-06-02 14:20:00,68.0,67.1,29.94,SE,138,4.0,7.0,97,0.52,,SKC,0.55,32.00,VWS V14.01,2013-06-02 18:20:00,
2013-06-02 14:21:00,68.0,67.1,29.94,SE,138,2.0,7.0,97,0.52,,SKC,0.55,39.00,VWS V14.01,2013-06-02 18:21:00,
2013-06-02 14:23:00,68.0,67.1,29.94,SE,138,0.0,7.0,97,0.52,,SKC,0.55,47.00,VWS V14.01,2013-06-02 18:23:00,
2013-06-02 14:24:00,68.1,67.2,29.94,SE,137,2.0,7.0,97,0.53,,SKC,0.56,53.00,VWS V14.01,2013-06-02 18:24:00,
2013-06-02 14:25:00,68.1,67.2,29.94,SE,138,2.0,7.0,97,0.53,,SKC,0.56,58.00,VWS V14.01,2013-06-02 18:25:00,
2013-06-02 14:26:00,68.1,67.2,29.94,SE,137,0.0,7.0,97,0.53,,SKC,0.56,65.00,VWS V14.01,2013-06-02 18:26:00,
2013-06-02 14:28:00,68.2,67.3,29.94,SE,138,0.0,7.0,97,0.54,,SKC,0.57,84.00,VWS V14.01,2013-06-02 18:28:00,
2013-06-02 14:30:00,68.2,67.3,29.94,SE,137,1.0,7.0,97,0.54,,SKC,0.57,97.00,VWS V14.01,2013-06-02 18:30:00,
2013-06-02 14:31:00,68.2,67.3,29.94,SE,138,0.0,0.0,97,0.50,,SKC,0.57,100.00,VWS V14.01,2013-06-02 18:31:00,
2013-06-02 14:33:00,68.3,67.4,29.94,SE,137,0.0,0.0,97,0.50,,SKC,0.57,109.00,VWS V14.01,2013-06-02 18:33:00,
2013-06-02 14:35:00,68.3,67.4,29.94,SE,137,0.0,0.0,97,0.51,,SKC,0.58,120.00,VWS V14.01,2013-06-02 18:35:00,
2013-06-02 14:36:00,68.4,67.5,29.94,SE,138,0.0,0.0,97,0.51,,SKC,0.58,127.00,VWS V14.01,2013-06-02 18:36:00,
2013-06-02 14:39:00,68.5,67.6,29.94,SE,137,0.0,1.0,97,0.51,,SKC,0.58,149.00,VWS V14.01,2013-06-02 18:39:00,
2013-06-02 14:40:00,68.5,67.6,29.94,SE,137,0.0,1.0,97,0.52,,SKC,0.59,156.00,VWS V14.01,2013-06-02 18:40:00,
2013-06-02 14:41:00,68.5,67.6,29.93,SE,137,0.0,1.0,97,0.52,,SKC,0.59,156.00,VWS V14.01,2013-06-02 18:41:00,
2013-06-02 14:44:00,68.5,67.6,29.93,SE,138,1.0,1.0,97,0.52,,SKC,0.59,134.00,VWS V14.01,2013-06-02 18:44:00,
2013-06-02 14:45:00,68.5,67.6,29.94,SE,138,0.0,2.0,97,0.52,,SKC,0.59,127.00,VWS V14.01,2013-06-02 18:45:00,
2013-06-02 14:46:00,68.5,67.6,29.93,SE,138,0.0,2.0,97,0.52,,SKC,0.59,125.00,VWS V14.01,2013-06-02 18:46:00,
2013-06-02 14:49:00,68.3,67.4,29.93,SE,139,0.0,3.0,97,0.52,,SKC,0.59,120.00,VWS V14.01,2013-06-02 18:49:00,
2013-06-02 14:50:00,68.2,67.3,29.93,SE,139,4.0,5.0,97,0.52,,SKC,0.59,127.00,VWS V14.01,2013-06-02 18:50:00,
2013-06-02 14:51:00,68.2,67.3,29.93,SSW,213,3.0,5.0,97,0.52,,SKC,0.59,137.00,VWS V14.01,2013-06-02 18:51:00,
2013-06-02 14:54:00,68.0,67.1,29.93,SSW,205,0.0,5.0,97,0.52,,SKC,0.59,158.00,VWS V14.01,2013-06-02 18:54:00,
2013-06-02 14:55:00,68.0,67.1,29.93,SSW,205,0.0,5.0,97,0.52,,SKC,0.59,165.00,VWS V14.01,2013-06-02 18:55:00,
2013-06-02 14:56:00,68.0,67.1,29.93,SSW,205,0.0,5.0,97,0.52,,SKC,0.59,167.00,VWS V14.01,2013-06-02 18:56:00,
2013-06-02 14:57:00,68.0,67.1,29.93,SSW,205,0.0,5.0,97,0.52,,SKC,0.59,174.00,VWS V14.01,2013-06-02 18:57:00,
2013-06-02 15:00:00,68.1,67.2,29.93,SSW,205,0.0,5.0,97,0.52,,SKC,0.59,206.00,VWS V14.01,2013-06-02 19:00:00,
2013-06-02 15:01:00,68.2,67.3,29.92,SSW,205,0.0,5.0,97,0.52,,SKC,0.59,213.00,VWS V14.01,2013-06-02 19:01:00,
2013-06-02 15:03:00,68.3,67.4,29.92,SSW,205,0.0,0.0,97,0.06,,SKC,0.59,221.00,VWS V14.01,2013-06-02 19:03:00,
2013-06-02 15:05:00,68.3,67.4,29.92,SSW,202,0.0,1.0,97,0.06,,SKC,0.59,232.00,VWS V14.01,2013-06-02 19:05:00,
2013-06-02 15:06:00,68.3,67.4,29.92,South,182,1.0,2.0,97,0.06,,SKC,0.59,230.00,VWS V14.01,2013-06-02 19:06:00,
2013-06-02 15:07:00,68.3,67.4,29.92,South,182,0.0,2.0,97,0.06,,SKC,0.59,230.00,VWS V14.01,2013-06-02 19:07:00,
2013-06-02 15:08:00,68.6,68.0,29.92,South,182,0.0,2.0,98,0.06,,SKC,0.59,234.00,VWS V14.01,2013-06-02 19:08:00,
2013-06-02 15:10:00,68.9,68.3,29.92,South,182,0.0,2.0,98,0.06,,SKC,0.59,225.00,VWS V14.01,2013-06-02 19:10:00,
2013-06-02 15:11:00,69.1,68.5,29.91,South,182,0.0,2.0,98,0.06,,SKC,0.59,218.00,VWS V14.01,2013-06-02 19:11:00,
2013-06-02 15:12:00,69.2,68.6,29.91,South,182,0.0,2.0,98,0.06,,SKC,0.59,221.00,VWS V14.01,2013-06-02 19:12:00,
2013-06-02 15:13:00,69.2,68.6,29.91,South,182,0.0,2.0,98,0.06,,SKC,0.59,239.00,VWS V14.01,2013-06-02 19:13:00,
2013-06-02 15:15:00,69.2,68.3,29.91,South,182,0.0,2.0,97,0.06,,SKC,0.59,297.00,VWS V14.01,2013-06-02 19:15:00,
2013-06-02 15:16:00,69.1,68.2,29.91,South,182,0.0,2.0,97,0.06,,SKC,0.59,392.00,VWS V14.01,2013-06-02 19:16:00,
2013-06-02 15:17:00,69.1,68.2,29.91,South,182,0.0,2.0,97,0.06,,SKC,0.59,410.00,VWS V14.01,2013-06-02 19:17:00,
2013-06-02 15:18:00,69.2,68.3,29.91,South,182,0.0,2.0,97,0.06,,SKC,0.59,443.00,VWS V14.01,2013-06-02 19:18:00,
2013-06-02 15:20:00,69.6,68.7,29.91,South,182,0.0,2.0,97,0.06,,SKC,0.59,446.00,VWS V14.01,2013-06-02 19:20:00,
2013-06-02 15:21:00,69.7,68.8,29.91,South,182,0.0,2.0,97,0.06,,SKC,0.59,489.00,VWS V14.01,2013-06-02 19:21:00,
2013-06-02 15:22:00,69.7,68.8,29.91,South,182,1.0,2.0,97,0.06,,SKC,0.59,489.00,VWS V14.01,2013-06-02 19:22:00,
2013-06-02 15:24:00,69.8,68.9,29.91,South,182,0.0,2.0,97,0.06,,SKC,0.59,589.00,VWS V14.01,2013-06-02 19:24:00,
2013-06-02 15:26:00,70.1,69.2,29.91,South,182,0.0,2.0,97,0.06,,SKC,0.59,657.00,VWS V14.01,2013-06-02 19:26:00,
2013-06-02 15:27:00,70.3,69.4,29.92,South,182,0.0,2.0,97,0.06,,SKC,0.59,717.00,VWS V14.01,2013-06-02 19:27:00,
2013-06-02 15:29:00,71.1,70.2,29.92,South,182,0.0,2.0,97,0.06,,SKC,0.59,768.00,VWS V14.01,2013-06-02 19:29:00,
2013-06-02 15:31:00,71.9,70.7,29.91,South,182,0.0,0.0,96,0.02,,SKC,0.59,483.00,VWS V14.01,2013-06-02 19:31:00,
2013-06-02 15:32:00,72.1,70.6,29.91,South,182,0.0,0.0,95,0.02,,SKC,0.59,424.00,VWS V14.01,2013-06-02 19:32:00,
2013-06-02 15:33:00,72.5,70.7,29.91,South,182,0.0,1.0,94,0.02,,SKC,0.59,489.00,VWS V14.01,2013-06-02 19:33:00,
2013-06-02 15:34:00,72.6,70.8,29.91,South,182,1.0,1.0,94,0.02,,SKC,0.59,515.00,VWS V14.01,2013-06-02 19:34:00,
2013-06-02 15:36:00,73.0,70.5,29.92,South,182,0.0,1.0,92,0.02,,SKC,0.59,951.00,VWS V14.01,2013-06-02 19:36:00,
2013-06-02 15:37:00,73.2,69.8,29.92,South,182,0.0,1.0,89,0.02,,SKC,0.59,951.00,VWS V14.01,2013-06-02 19:37:00,
2013-06-02 15:38:00,73.4,70.0,29.91,South,182,1.0,1.0,89,0.02,,SKC,0.59,1121.00,VWS V14.01,2013-06-02 19:38:00,
2013-06-02 15:39:00,74.2,70.8,29.91,South,182,0.0,1.0,89,0.02,,SKC,0.59,1121.00,VWS V14.01,2013-06-02 19:39:00,
2013-06-02 15:41:00,76.2,71.0,29.91,WNW,292,2.0,2.0,84,0.02,,SKC,0.59,1099.00,VWS V14.01,2013-06-02 19:41:00,
2013-06-02 15:42:00,75.8,69.9,29.91,WNW,292,1.0,2.0,82,0.02,,SKC,0.59,1099.00,VWS V14.01,2013-06-02 19:42:00,
2013-06-02 15:43:00,74.6,69.1,29.91,WNW,292,0.0,2.0,83,0.02,,SKC,0.59,589.00,VWS V14.01,2013-06-02 19:43:00,
2013-06-02 15:44:00,73.9,69.1,29.91,WNW,286,2.0,2.0,85,0.02,,SKC,0.59,601.00,VWS V14.01,2013-06-02 19:44:00,
2013-06-02 15:47:00,72.6,68.8,29.91,WNW,286,0.0,2.0,88,0.02,,SKC,0.59,559.00,VWS V14.01,2013-06-02 19:47:00,
2013-06-02 15:48:00,72.4,69.0,29.91,West,280,1.0,2.0,89,0.02,,SKC,0.59,668.00,VWS V14.01,2013-06-02 19:48:00,
2013-06-02 15:49:00,72.3,68.9,29.91,South,184,1.0,2.0,89,0.02,,SKC,0.59,668.00,VWS V14.01,2013-06-02 19:49:00,
2013-06-02 15:52:00,72.3,68.9,29.91,South,184,1.0,2.0,89,0.02,,SKC,0.59,244.00,VWS V14.01,2013-06-02 19:52:00,
2013-06-02 15:53:00,72.3,68.9,29.91,South,184,0.0,2.0,89,0.02,,SKC,0.59,246.00,VWS V14.01,2013-06-02 19:53:00,
2013-06-02 15:54:00,72.4,68.7,29.91,South,184,0.0,2.0,88,0.02,,SKC,0.59,258.00,VWS V14.01,2013-06-02 19:54:00,
2013-06-02 15:57:00,72.5,69.1,29.91,South,184,0.0,2.0,89,0.02,,SKC,0.59,320.00,VWS V14.01,2013-06-02 19:57:00,
2013-06-02 15:58:00,72.6,69.2,29.91,South,184,0.0,2.0,89,0.02,,SKC,0.59,332.00,VWS V14.01,2013-06-02 19:58:00,
2013-06-02 15:59:00,72.6,69.5,29.91,South,184,0.0,2.0,90,0.02,,SKC,0.59,334.00,VWS V14.01,2013-06-02 19:59:00,
2013-06-02 16:00:00,72.7,69.3,29.91,South,184,0.0,2.0,89,0.02,,SKC,0.59,332.00,VWS V14.01,2013-06-02 20:00:00,
2013-06-02 16:02:00,72.8,69.4,29.91,South,184,0.0,0.0,89,0.00,,SKC,0.59,332.00,VWS V14.01,2013-06-02 20:02:00,
2013-06-02 16:03:00,72.7,69.3,29.91,South,184,0.0,1.0,89,0.00,,SKC,0.59,339.00,VWS V14.01,2013-06-02 20:03:00,
2013-06-02 16:04:00,72.7,69.3,29.91,South,184,2.0,2.0,89,0.00,,SKC,0.59,339.00,VWS V14.01,2013-06-02 20:04:00,
2013-06-02 16:05:00,72.6,69.2,29.91,South,180,2.0,3.0,89,0.00,,SKC,0.59,325.00,VWS V14.01,2013-06-02 20:05:00,
2013-06-02 16:07:00,72.5,69.1,29.91,South,172,1.0,3.0,89,0.00,,SKC,0.59,304.00,VWS V14.01,2013-06-02 20:07:00,
2013-06-02 16:08:00,72.4,68.7,29.91,South,172,0.0,3.0,88,0.00,,SKC,0.59,304.00,VWS V14.01,2013-06-02 20:08:00,
2013-06-02 16:09:00,72.4,69.0,29.91,South,172,1.0,3.0,89,0.00,,SKC,0.59,297.00,VWS V14.01,2013-06-02 20:09:00,
2013-06-02 16:10:00,72.4,69.0,29.91,South,172,1.0,3.0,89,0.00,,SKC,0.59,297.00,VWS V14.01,2013-06-02 20:10:00,
2013-06-02 16:12:00,72.4,69.3,29.91,South,172,0.0,3.0,90,0.00,,SKC,0.59,316.00,VWS V14.01,2013-06-02 20:12:00,
2013-06-02 16:13:00,72.4,69.3,29.91,South,172,0.0,3.0,90,0.00,,SKC,0.59,316.00,VWS V14.01,2013-06-02 20:13:00,
2013-06-02 16:14:00,72.4,69.3,29.91,SE,135,4.0,6.0,90,0.00,,SKC,0.59,318.00,VWS V14.01,2013-06-02 20:14:00,
2013-06-02 16:15:00,72.4,69.3,29.91,SE,135,3.0,6.0,90,0.00,,SKC,0.59,295.00,VWS V14.01,2013-06-02 20:15:00,
2013-06-02 16:16:00,72.4,69.3,29.91,SE,136,1.0,6.0,90,0.00,,SKC,0.59,279.00,VWS V14.01,2013-06-02 20:16:00,
2013-06-02 16:17:00,72.3,69.2,29.91,SE,136,0.0,6.0,90,0.00,,SKC,0.59,243.00,VWS V14.01,2013-06-02 20:17:00,
2013-06-02 16:18:00,72.3,69.2,29.91,SE,136,0.0,6.0,90,0.00,,SKC,0.59,243.00,VWS V14.01,2013-06-02 20:18:00,
2013-06-02 16:19:00,72.3,69.2,29.91,SE,136,1.0,6.0,90,0.00,,SKC,0.59,229.00,VWS V14.01,2013-06-02 20:19:00,
2013-06-02 16:20:00,72.3,69.2,29.90,SE,136,2.0,6.0,90,0.00,,SKC,0.59,213.00,VWS V14.01,2013-06-02 20:20:00,
2013-06-02 16:21:00,72.2,68.8,29.90,SE,136,0.0,6.0,89,0.00,,SKC,0.59,200.00,VWS V14.01,2013-06-02 20:21:00,
2013-06-02 16:22:00,72.2,69.1,29.90,SE,136,1.0,6.0,90,0.00,,SKC,0.59,176.00,VWS V14.01,2013-06-02 20:22:00,
2013-06-02 16:23:00,72.2,69.1,29.90,SE,136,0.0,6.0,90,0.00,,SKC,0.59,176.00,VWS V14.01,2013-06-02 20:23:00,
2013-06-02 16:24:00,72.2,69.1,29.90,SE,136,1.0,6.0,90,0.00,,SKC,0.59,158.00,VWS V14.01,2013-06-02 20:24:00,
2013-06-02 16:25:00,72.2,69.1,29.90,SE,136,0.0,6.0,90,0.00,,SKC,0.59,130.00,VWS V14.01,2013-06-02 20:25:00,
2013-06-02 16:26:00,72.2,69.1,29.90,SE,136,0.0,6.0,90,0.00,,SKC,0.59,120.00,VWS V14.01,2013-06-02 20:26:00,
2013-06-02 16:27:00,72.2,69.1,29.90,SE,136,0.0,6.0,90,0.00,,SKC,0.59,113.00,VWS V14.01,2013-06-02 20:27:00,
2013-06-02 16:28:00,72.2,69.1,29.90,SE,136,0.0,6.0,90,0.00,,SKC,0.59,109.00,VWS V14.01,2013-06-02 20:28:00,
2013-06-02 16:29:00,72.2,69.1,29.90,SE,136,1.0,6.0,90,0.00,,SKC,0.59,105.00,VWS V14.01,2013-06-02 20:29:00,
2013-06-02 16:30:00,72.1,68.7,29.90,SE,136,0.0,6.0,89,0.00,,SKC,0.59,100.00,VWS V14.01,2013-06-02 20:30:00,
2013-06-02 16:31:00,71.9,68.8,29.90,SE,136,1.0,1.0,90,0.00,,SKC,0.59,98.00,VWS V14.01,2013-06-02 20:31:00,
2013-06-02 16:32:00,71.8,68.7,29.90,SE,136,1.0,1.0,90,0.00,,SKC,0.59,100.00,VWS V14.01,2013-06-02 20:32:00,
2013-06-02 16:33:00,71.8,68.7,29.90,SE,136,0.0,1.0,90,0.00,,SKC,0.59,100.00,VWS V14.01,2013-06-02 20:33:00,
2013-06-02 16:34:00,71.7,68.6,29.90,SE,136,0.0,1.0,90,0.00,,SKC,0.59,100.00,VWS V14.01,2013-06-02 20:34:00,
2013-06-02 16:36:00,71.6,68.5,29.90,SE,136,1.0,2.0,90,0.00,,SKC,0.59,90.00,VWS V14.01,2013-06-02 20:36:00,
2013-06-02 16:37:00,71.6,68.5,29.90,SE,136,0.0,2.0,90,0.00,,SKC,0.59,86.00,VWS V14.01,2013-06-02 20:37:00,
2013-06-02 16:38:00,71.6,68.8,29.90,SE,136,0.0,2.0,91,0.01,,SKC,0.60,86.00,VWS V14.01,2013-06-02 20:38:00,
2013-06-02 16:39:00,71.7,68.9,29.90,SE,136,0.0,2.0,91,0.01,,SKC,0.60,76.00,VWS V14.01,2013-06-02 20:39:00,
2013-06-02 16:41:00,71.7,68.9,29.90,SE,136,0.0,2.0,91,0.01,,SKC,0.60,65.00,VWS V14.01,2013-06-02 20:41:00,
2013-06-02 16:42:00,71.7,68.9,29.90,SE,136,0.0,2.0,91,0.01,,SKC,0.60,65.00,VWS V14.01,2013-06-02 20:42:00,
2013-06-02 16:43:00,71.7,68.9,29.89,SE,136,0.0,2.0,91,0.01,,SKC,0.60,62.00,VWS V14.01,2013-06-02 20:43:00,
2013-06-02 16:44:00,71.7,68.9,29.90,SE,136,1.0,2.0,91,0.01,,SKC,0.60,56.00,VWS V14.01,2013-06-02 20:44:00,
2013-06-02 16:47:00,71.6,68.8,29.89,SE,136,0.0,2.0,91,0.01,,SKC,0.60,46.00,VWS V14.01,2013-06-02 20:47:00,
2013-06-02 16:48:00,71.6,69.2,29.89,SE,136,0.0,2.0,92,0.01,,SKC,0.60,39.00,VWS V14.01,2013-06-02 20:48:00,
2013-06-02 16:49:00,71.5,69.1,29.89,SE,136,0.0,2.0,92,0.01,,SKC,0.60,39.00,VWS V14.01,2013-06-02 20:49:00,
2013-06-02 16:52:00,71.4,69.0,29.89,SE,136,2.0,2.0,92,0.02,,SKC,0.61,30.00,VWS V14.01,2013-06-02 20:52:00,
2013-06-02 16:53:00,71.3,68.9,29.89,SE,136,1.0,4.0,92,0.02,,SKC,0.61,30.00,VWS V14.01,2013-06-02 20:53:00,
2013-06-02 16:54:00,71.3,68.9,29.89,SE,136,3.0,4.0,92,0.02,,SKC,0.61,30.00,VWS V14.01,2013-06-02 20:54:00,
2013-06-02 16:55:00,71.2,68.8,29.89,SE,136,0.0,4.0,92,0.02,,SKC,0.61,30.00,VWS V14.01,2013-06-02 20:55:00,
2013-06-02 16:58:00,71.1,68.7,29.88,SE,136,0.0,4.0,92,0.03,,SKC,0.62,33.00,VWS V14.01,2013-06-02 20:58:00,
2013-06-02 16:59:00,71.0,68.6,29.88,SE,136,0.0,4.0,92,0.03,,SKC,0.62,37.00,VWS V14.01,2013-06-02 20:59:00,
2013-06-02 17:00:00,71.0,68.6,29.88,SE,136,0.0,4.0,92,0.03,,SKC,0.62,39.00,VWS V14.01,2013-06-02 21:00:00,
2013-06-02 17:03:00,70.9,68.8,29.88,SE,136,1.0,1.0,93,0.03,,SKC,0.62,46.00,VWS V14.01,2013-06-02 21:03:00,
2013-06-02 17:05:00,70.9,68.8,29.88,SE,136,0.0,1.0,93,0.03,,SKC,0.62,51.00,VWS V14.01,2013-06-02 21:05:00,
2013-06-02 17:08:00,70.8,68.7,29.88,SE,135,0.0,1.0,93,0.03,,SKC,0.62,62.00,VWS V14.01,2013-06-02 21:08:00,
2013-06-02 17:10:00,70.8,68.7,29.88,SE,136,0.0,1.0,93,0.03,,SKC,0.62,70.00,VWS V14.01,2013-06-02 21:10:00,
2013-06-02 17:11:00,70.8,68.7,29.88,SE,136,0.0,1.0,93,0.03,,SKC,0.62,70.00,VWS V14.01,2013-06-02 21:11:00,
2013-06-02 17:13:00,70.8,69.0,29.89,SE,136,2.0,2.0,94,0.03,,SKC,0.62,77.00,VWS V14.01,2013-06-02 21:13:00,
2013-06-02 17:14:00,70.8,69.0,29.89,SE,136,1.0,2.0,94,0.03,,SKC,0.62,77.00,VWS V14.01,2013-06-02 21:14:00,
2013-06-02 17:15:00,70.7,68.6,29.89,SE,136,0.0,2.0,93,0.03,,SKC,0.62,79.00,VWS V14.01,2013-06-02 21:15:00,
2013-06-02 17:16:00,70.7,68.6,29.89,SE,135,0.0,2.0,93,0.03,,SKC,0.62,81.00,VWS V14.01,2013-06-02 21:16:00,
2013-06-02 17:19:00,70.7,68.9,29.89,SE,136,0.0,2.0,94,0.03,,SKC,0.62,83.00,VWS V14.01,2013-06-02 21:19:00,
2013-06-02 17:20:00,70.7,68.9,29.89,SE,136,0.0,2.0,94,0.03,,SKC,0.62,77.00,VWS V14.01,2013-06-02 21:20:00,
2013-06-02 17:21:00,70.7,68.9,29.89,SE,136,0.0,2.0,94,0.03,,SKC,0.62,77.00,VWS V14.01,2013-06-02 21:21:00,
2013-06-02 17:24:00,70.7,68.9,29.89,SE,136,0.0,2.0,94,0.03,,SKC,0.62,86.00,VWS V14.01,2013-06-02 21:24:00,
2013-06-02 17:26:00,70.8,69.0,29.89,SE,136,0.0,2.0,94,0.03,,SKC,0.62,134.00,VWS V14.01,2013-06-02 21:26:00,
2013-06-02 17:29:00,70.9,69.1,29.88,SE,136,0.0,2.0,94,0.03,,SKC,0.62,158.00,VWS V14.01,2013-06-02 21:29:00,
2013-06-02 17:31:00,70.9,69.1,29.88,SE,136,0.0,0.0,94,0.03,,SKC,0.62,169.00,VWS V14.01,2013-06-02 21:31:00,
2013-06-02 17:33:00,70.9,69.1,29.88,SE,136,0.0,0.0,94,0.03,,SKC,0.62,185.00,VWS V14.01,2013-06-02 21:33:00,
2013-06-02 17:34:00,70.8,69.0,29.89,SE,136,1.0,2.0,94,0.03,,SKC,0.62,176.00,VWS V14.01,2013-06-02 21:34:00,
2013-06-02 17:35:00,70.7,68.9,29.89,SE,136,0.0,2.0,94,0.03,,SKC,0.62,120.00,VWS V14.01,2013-06-02 21:35:00,
2013-06-02 17:36:00,70.7,68.9,29.89,SE,136,0.0,2.0,94,0.03,,SKC,0.62,102.00,VWS V14.01,2013-06-02 21:36:00,
2013-06-02 17:38:00,70.6,68.8,29.89,SE,136,0.0,2.0,94,0.03,,SKC,0.62,118.00,VWS V14.01,2013-06-02 21:38:00,
2013-06-02 17:39:00,70.6,68.8,29.89,SE,136,0.0,2.0,94,0.03,,SKC,0.62,118.00,VWS V14.01,2013-06-02 21:39:00,
2013-06-02 17:41:00,70.6,68.8,29.89,SE,136,2.0,2.0,94,0.03,,SKC,0.62,146.00,VWS V14.01,2013-06-02 21:41:00,
2013-06-02 17:43:00,70.5,68.4,29.89,SE,136,0.0,4.0,93,0.03,,SKC,0.62,153.00,VWS V14.01,2013-06-02 21:43:00,
2013-06-02 17:44:00,70.5,68.7,29.89,SE,137,0.0,4.0,94,0.03,,SKC,0.62,105.00,VWS V14.01,2013-06-02 21:44:00,
2013-06-02 17:46:00,70.5,68.7,29.89,SE,136,1.0,4.0,94,0.03,,SKC,0.62,93.00,VWS V14.01,2013-06-02 21:46:00,
2013-06-02 17:47:00,70.5,68.7,29.89,SE,136,1.0,4.0,94,0.03,,SKC,0.62,104.00,VWS V14.01,2013-06-02 21:47:00,
2013-06-02 17:48:00,70.6,68.8,29.89,SE,136,1.0,4.0,94,0.03,,SKC,0.62,123.00,VWS V14.01,2013-06-02 21:48:00,
2013-06-02 17:49:00,70.6,68.8,29.89,SE,136,0.0,4.0,94,0.03,,SKC,0.62,113.00,VWS V14.01,2013-06-02 21:49:00,
2013-06-02 17:50:00,70.6,68.8,29.89,SE,136,0.0,4.0,94,0.03,,SKC,0.62,93.00,VWS V14.01,2013-06-02 21:50:00,
2013-06-02 17:51:00,70.6,68.8,29.89,SE,136,0.0,4.0,94,0.03,,SKC,0.62,72.00,VWS V14.01,2013-06-02 21:51:00,
2013-06-02 17:52:00,70.6,68.8,29.88,SE,136,3.0,4.0,94,0.03,,SKC,0.62,67.00,VWS V14.01,2013-06-02 21:52:00,
2013-06-02 17:54:00,70.6,68.8,29.88,SE,136,4.0,4.0,94,0.03,,SKC,0.62,72.00,VWS V14.01,2013-06-02 21:54:00,
2013-06-02 17:55:00,70.6,68.8,29.88,SE,136,1.0,4.0,94,0.03,,SKC,0.62,91.00,VWS V14.01,2013-06-02 21:55:00,
2013-06-02 17:56:00,70.6,68.8,29.88,SE,136,1.0,4.0,94,0.03,,SKC,0.62,100.00,VWS V14.01,2013-06-02 21:56:00,
2013-06-02 17:57:00,70.6,68.8,29.88,SE,136,0.0,4.0,94,0.03,,SKC,0.62,118.00,VWS V14.01,2013-06-02 21:57:00,
2013-06-02 17:59:00,70.6,68.8,29.88,SE,136,0.0,4.0,94,0.03,,SKC,0.62,128.00,VWS V14.01,2013-06-02 21:59:00,
2013-06-02 18:00:00,70.5,68.7,29.88,SE,137,2.0,4.0,94,0.03,,SKC,0.62,135.00,VWS V14.01,2013-06-02 22:00:00,
2013-06-02 18:01:00,70.4,68.6,29.88,SW,216,5.0,6.0,94,0.03,,SKC,0.62,134.00,VWS V14.01,2013-06-02 22:01:00,
2013-06-02 18:02:00,70.3,68.2,29.88,South,169,1.0,5.0,93,0.00,,SKC,0.62,130.00,VWS V14.01,2013-06-02 22:02:00,
2013-06-02 18:04:00,70.2,68.4,29.89,SSE,167,2.0,5.0,94,0.00,,SKC,0.62,114.00,VWS V14.01,2013-06-02 22:04:00,
2013-06-02 18:05:00,70.2,68.4,29.89,SSW,213,1.0,5.0,94,0.00,,SKC,0.62,102.00,VWS V14.01,2013-06-02 22:05:00,
2013-06-02 18:06:00,70.2,68.4,29.89,SSE,157,1.0,5.0,94,0.00,,SKC,0.62,105.00,VWS V14.01,2013-06-02 22:06:00,
2013-06-02 18:08:00,70.1,68.3,29.89,SW,225,8.0,8.0,94,0.00,,SKC,0.62,109.00,VWS V14.01,2013-06-02 22:08:00,
2013-06-02 18:09:00,69.9,67.8,29.89,SSW,205,6.0,8.0,93,0.00,,SKC,0.62,104.00,VWS V14.01,2013-06-02 22:09:00,
2013-06-02 18:10:00,69.8,67.4,29.89,SSE,162,4.0,8.0,92,0.00,,SKC,0.62,88.00,VWS V14.01,2013-06-02 22:10:00,
2013-06-02 18:11:00,69.7,67.3,29.89,SSW,205,0.0,8.0,92,0.00,,SKC,0.62,81.00,VWS V14.01,2013-06-02 22:11:00,
2013-06-02 18:13:00,69.6,67.5,29.89,SW,217,3.0,8.0,93,0.00,,SKC,0.62,67.00,VWS V14.01,2013-06-02 22:13:00,
2013-06-02 18:14:00,69.6,67.2,29.89,SW,217,4.0,8.0,92,0.00,,SKC,0.62,67.00,VWS V14.01,2013-06-02 22:14:00,
2013-06-02 18:15:00,69.6,67.2,29.89,SSW,211,4.0,8.0,92,0.00,,SKC,0.62,84.00,VWS V14.01,2013-06-02 22:15:00,
2013-06-02 18:16:00,69.5,67.1,29.89,SSE,165,1.0,8.0,92,0.00,,SKC,0.62,84.00,VWS V14.01,2013-06-02 22:16:00,
2013-06-02 18:19:00,69.4,67.0,29.89,SW,217,2.0,8.0,92,0.00,,SKC,0.62,116.00,VWS V14.01,2013-06-02 22:19:00,
2013-06-02 18:20:00,69.4,67.0,29.89,SSE,148,5.0,8.0,92,0.00,,SKC,0.62,123.00,VWS V14.01,2013-06-02 22:20:00,
2013-06-02 18:22:00,69.5,67.1,29.89,SSE,150,0.0,8.0,92,0.00,,SKC,0.62,123.00,VWS V14.01,2013-06-02 22:22:00,
2013-06-02 18:24:00,69.5,67.4,29.89,SSE,151,1.0,8.0,93,0.00,,SKC,0.62,118.00,VWS V14.01,2013-06-02 22:24:00,
2013-06-02 18:25:00,69.5,67.4,29.90,SSE,152,0.0,8.0,93,0.00,,SKC,0.62,107.00,VWS V14.01,2013-06-02 22:25:00,
2013-06-02 18:26:00,69.5,67.4,29.90,SSE,152,0.0,8.0,93,0.00,,SKC,0.62,97.00,VWS V14.01,2013-06-02 22:26:00,
2013-06-02 18:27:00,69.6,67.5,29.90,SSE,152,0.0,8.0,93,0.00,,SKC,0.62,88.00,VWS V14.01,2013-06-02 22:27:00,
2013-06-02 18:29:00,69.8,67.7,29.90,SSE,152,0.0,8.0,93,0.00,,SKC,0.62,74.00,VWS V14.01,2013-06-02 22:29:00,
2013-06-02 18:30:00,69.8,67.7,29.90,SSE,152,0.0,8.0,93,0.00,,SKC,0.62,72.00,VWS V14.01,2013-06-02 22:30:00,
2013-06-02 18:31:00,69.9,67.8,29.90,SSE,152,0.0,0.0,93,0.00,,SKC,0.62,72.00,VWS V14.01,2013-06-02 22:31:00,
2013-06-02 18:32:00,69.9,67.8,29.90,SSE,152,0.0,0.0,93,0.00,,SKC,0.62,74.00,VWS V14.01,2013-06-02 22:32:00,
2013-06-02 18:34:00,69.9,67.5,29.90,SSE,162,3.0,3.0,92,0.00,,SKC,0.62,69.00,VWS V14.01,2013-06-02 22:34:00,
2013-06-02 18:35:00,69.8,67.4,29.90,SSE,162,0.0,3.0,92,0.00,,SKC,0.62,72.00,VWS V14.01,2013-06-02 22:35:00,
2013-06-02 18:36:00,69.7,67.3,29.89,SSE,162,1.0,3.0,92,0.00,,SKC,0.62,76.00,VWS V14.01,2013-06-02 22:36:00,
2013-06-02 18:37:00,69.7,67.3,29.89,SSE,163,0.0,3.0,92,0.00,,SKC,0.62,88.00,VWS V14.01,2013-06-02 22:37:00,
2013-06-02 18:38:00,69.6,67.2,29.89,SSE,162,0.0,3.0,92,0.00,,SKC,0.62,88.00,VWS V14.01,2013-06-02 22:38:00,
2013-06-02 18:39:00,69.6,67.2,29.89,SSE,162,0.0,3.0,92,0.00,,SKC,0.62,95.00,VWS V14.01,2013-06-02 22:39:00,
2013-06-02 18:40:00,69.6,67.2,29.89,SSE,162,0.0,3.0,92,0.00,,SKC,0.62,97.00,VWS V14.01,2013-06-02 22:40:00,
2013-06-02 18:41:00,69.7,67.6,29.89,SSE,162,0.0,3.0,93,0.00,,SKC,0.62,95.00,VWS V14.01,2013-06-02 22:41:00,
2013-06-02 18:42:00,69.7,67.6,29.89,SSE,162,1.0,3.0,93,0.00,,SKC,0.62,91.00,VWS V14.01,2013-06-02 22:42:00,
2013-06-02 18:43:00,69.7,67.6,29.89,SSE,162,0.0,3.0,93,0.00,,SKC,0.62,90.00,VWS V14.01,2013-06-02 22:43:00,
2013-06-02 18:44:00,69.7,67.3,29.89,SSE,162,2.0,3.0,92,0.00,,SKC,0.62,83.00,VWS V14.01,2013-06-02 22:44:00,
2013-06-02 18:45:00,69.6,67.2,29.90,SSE,162,0.0,3.0,92,0.00,,SKC,0.62,81.00,VWS V14.01,2013-06-02 22:45:00,
2013-06-02 18:46:00,69.6,67.2,29.90,SSE,163,3.0,3.0,92,0.00,,SKC,0.62,77.00,VWS V14.01,2013-06-02 22:46:00,
2013-06-02 18:48:00,69.5,67.4,29.89,SSE,153,3.0,3.0,93,0.00,,SKC,0.62,70.00,VWS V14.01,2013-06-02 22:48:00,
2013-06-02 18:50:00,69.5,67.4,29.89,SSE,152,0.0,3.0,93,0.00,,SKC,0.62,63.00,VWS V14.01,2013-06-02 22:50:00,
2013-06-02 18:51:00,69.5,67.4,29.89,SSE,152,0.0,3.0,93,0.00,,SKC,0.62,63.00,VWS V14.01,2013-06-02 22:51:00,
2013-06-02 18:53:00,69.5,67.4,29.89,SSE,151,0.0,4.0,93,0.00,,SKC,0.62,58.00,VWS V14.01,2013-06-02 22:53:00,
2013-06-02 18:55:00,69.4,67.0,29.89,South,173,1.0,4.0,92,0.00,,SKC,0.62,60.00,VWS V14.01,2013-06-02 22:55:00,
2013-06-02 18:56:00,69.3,66.9,29.89,South,173,1.0,4.0,92,0.00,,SKC,0.62,60.00,VWS V14.01,2013-06-02 22:56:00,
2013-06-02 18:57:00,69.3,67.2,29.89,South,173,0.0,4.0,93,0.00,,SKC,0.62,58.00,VWS V14.01,2013-06-02 22:57:00,
2013-06-02 18:59:00,69.3,67.2,29.89,South,173,0.0,4.0,93,0.00,,SKC,0.62,56.00,VWS V14.01,2013-06-02 22:59:00,
2013-06-02 19:01:00,69.3,67.2,29.89,South,173,0.0,4.0,93,0.00,,SKC,0.62,53.00,VWS V14.01,2013-06-02 23:01:00,
2013-06-02 19:02:00,69.4,67.3,29.89,South,173,0.0,0.0,93,0.00,,SKC,0.62,53.00,VWS V14.01,2013-06-02 23:02:00,
2013-06-02 19:03:00,69.4,67.3,29.89,South,173,0.0,0.0,93,0.00,,SKC,0.62,53.00,VWS V14.01,2013-06-02 23:03:00,
2013-06-02 19:04:00,69.4,67.3,29.89,South,173,0.0,1.0,93,0.00,,SKC,0.62,54.00,VWS V14.01,2013-06-02 23:04:00,
2013-06-02 19:06:00,69.5,67.7,29.89,South,173,0.0,1.0,94,0.00,,SKC,0.62,56.00,VWS V14.01,2013-06-02 23:06:00,
2013-06-02 19:07:00,69.5,67.7,29.89,South,173,0.0,1.0,94,0.00,,SKC,0.62,56.00,VWS V14.01,2013-06-02 23:07:00,
2013-06-02 19:08:00,69.5,67.7,29.90,South,173,0.0,1.0,94,0.00,,SKC,0.62,56.00,VWS V14.01,2013-06-02 23:08:00,
2013-06-02 19:09:00,69.6,67.8,29.89,South,173,0.0,1.0,94,0.00,,SKC,0.62,56.00,VWS V14.01,2013-06-02 23:09:00,
2013-06-02 19:12:00,69.7,67.9,29.89,South,173,0.0,1.0,94,0.00,,SKC,0.62,58.00,VWS V14.01,2013-06-02 23:12:00,
2013-06-02 19:13:00,69.8,68.0,29.89,South,173,1.0,1.0,94,0.00,,SKC,0.62,60.00,VWS V14.01,2013-06-02 23:13:00,
2013-06-02 19:14:00,69.8,68.0,29.90,South,173,0.0,1.0,94,0.00,,SKC,0.62,60.00,VWS V14.01,2013-06-02 23:14:00,
2013-06-02 19:15:00,69.8,67.7,29.90,South,173,0.0,1.0,93,0.00,,SKC,0.62,60.00,VWS V14.01,2013-06-02 23:15:00,
2013-06-02 19:17:00,69.8,67.7,29.89,South,173,0.0,1.0,93,0.00,,SKC,0.62,54.00,VWS V14.01,2013-06-02 23:17:00,
2013-06-02 19:18:00,69.7,67.6,29.89,South,173,0.0,1.0,93,0.00,,SKC,0.62,53.00,VWS V14.01,2013-06-02 23:18:00,
2013-06-02 19:19:00,69.8,68.0,29.90,South,173,0.0,1.0,94,0.00,,SKC,0.62,49.00,VWS V14.01,2013-06-02 23:19:00,
2013-06-02 19:20:00,69.8,68.0,29.90,South,173,0.0,1.0,94,0.00,,SKC,0.62,49.00,VWS V14.01,2013-06-02 23:20:00,
2013-06-02 19:22:00,69.8,68.0,29.90,South,173,0.0,1.0,94,0.00,,SKC,0.62,46.00,VWS V14.01,2013-06-02 23:22:00,
2013-06-02 19:23:00,69.8,68.0,29.90,South,173,0.0,1.0,94,0.00,,SKC,0.62,44.00,VWS V14.01,2013-06-02 23:23:00,
2013-06-02 19:25:00,69.8,68.0,29.90,South,173,0.0,1.0,94,0.00,,SKC,0.62,42.00,VWS V14.01,2013-06-02 23:25:00,
2013-06-02 19:26:00,69.8,68.0,29.90,South,173,0.0,1.0,94,0.00,,SKC,0.62,39.00,VWS V14.01,2013-06-02 23:26:00,
2013-06-02 19:27:00,69.8,68.0,29.90,South,173,0.0,1.0,94,0.00,,SKC,0.62,37.00,VWS V14.01,2013-06-02 23:27:00,
2013-06-02 19:28:00,69.8,68.0,29.90,South,173,0.0,1.0,94,0.00,,SKC,0.62,33.00,VWS V14.01,2013-06-02 23:28:00,
2013-06-02 19:30:00,69.8,68.0,29.90,South,173,0.0,1.0,94,0.00,,SKC,0.62,32.00,VWS V14.01,2013-06-02 23:30:00,
2013-06-02 19:31:00,69.7,67.9,29.90,SSE,163,0.0,0.0,94,0.00,,SKC,0.62,30.00,VWS V14.01,2013-06-02 23:31:00,
2013-06-02 19:32:00,69.7,67.9,29.90,SSE,163,0.0,0.0,94,0.00,,SKC,0.62,30.00,VWS V14.01,2013-06-02 23:32:00,
2013-06-02 19:33:00,69.8,68.0,29.90,SSE,163,0.0,0.0,94,0.00,,SKC,0.62,28.00,VWS V14.01,2013-06-02 23:33:00,
2013-06-02 19:34:00,69.7,67.9,29.90,SSE,163,0.0,0.0,94,0.00,,SKC,0.62,28.00,VWS V14.01,2013-06-02 23:34:00,
2013-06-02 19:35:00,69.8,68.0,29.91,SSE,163,0.0,0.0,94,0.00,,SKC,0.62,26.00,VWS V14.01,2013-06-02 23:35:00,
2013-06-02 19:37:00,69.7,67.9,29.91,SSE,163,0.0,0.0,94,0.00,,SKC,0.62,26.00,VWS V14.01,2013-06-02 23:37:00,
2013-06-02 19:38:00,69.7,67.9,29.91,SSE,163,0.0,0.0,94,0.00,,SKC,0.62,25.00,VWS V14.01,2013-06-02 23:38:00,
2013-06-02 19:39:00,69.7,67.9,29.91,SSE,163,0.0,0.0,94,0.00,,SKC,0.62,25.00,VWS V14.01,2013-06-02 23:39:00,
2013-06-02 19:40:00,69.7,67.9,29.90,SSE,163,0.0,0.0,94,0.00,,SKC,0.62,25.00,VWS V14.01,2013-06-02 23:40:00,
2013-06-02 19:42:00,69.7,67.9,29.91,SSE,163,0.0,0.0,94,0.00,,SKC,0.62,23.00,VWS V14.01,2013-06-02 23:42:00,
2013-06-02 19:43:00,69.7,67.9,29.91,SSE,163,0.0,0.0,94,0.00,,SKC,0.62,23.00,VWS V14.01,2013-06-02 23:43:00,
2013-06-02 19:44:00,69.7,67.9,29.90,SSE,163,0.0,0.0,94,0.00,,SKC,0.62,23.00,VWS V14.01,2013-06-02 23:44:00,
2013-06-02 19:45:00,69.6,67.8,29.91,SSE,163,0.0,0.0,94,0.00,,SKC,0.62,21.00,VWS V14.01,2013-06-02 23:45:00,
2013-06-02 19:47:00,69.6,67.8,29.91,SSE,163,0.0,0.0,94,0.00,,SKC,0.62,21.00,VWS V14.01,2013-06-02 23:47:00,
2013-06-02 19:48:00,69.6,67.8,29.91,SSE,163,0.0,0.0,94,0.00,,SKC,0.62,21.00,VWS V14.01,2013-06-02 23:48:00,
2013-06-02 19:49:00,69.6,67.8,29.91,SSE,163,1.0,1.0,94,0.00,,SKC,0.62,21.00,VWS V14.01,2013-06-02 23:49:00,
2013-06-02 19:50:00,69.6,67.8,29.91,SSE,163,0.0,1.0,94,0.00,,SKC,0.62,21.00,VWS V14.01,2013-06-02 23:50:00,
2013-06-02 19:52:00,69.6,67.8,29.90,SSE,163,0.0,1.0,94,0.00,,SKC,0.62,21.00,VWS V14.01,2013-06-02 23:52:00,
2013-06-02 19:53:00,69.6,67.8,29.90,SSE,163,3.0,3.0,94,0.00,,SKC,0.62,21.00,VWS V14.01,2013-06-02 23:53:00,
2013-06-02 19:54:00,69.5,67.4,29.90,SSE,164,0.0,3.0,93,0.00,,SKC,0.62,21.00,VWS V14.01,2013-06-02 23:54:00,
2013-06-02 19:55:00,69.5,67.4,29.90,SSE,164,0.0,3.0,93,0.00,,SKC,0.62,21.00,VWS V14.01,2013-06-02 23:55:00,
2013-06-02 19:56:00,69.5,67.7,29.90,SSE,164,0.0,3.0,94,0.00,,SKC,0.62,21.00,VWS V14.01,2013-06-02 23:56:00,
2013-06-02 19:58:00,69.5,67.7,29.91,SSE,164,0.0,3.0,94,0.00,,SKC,0.62,19.00,VWS V14.01,2013-06-02 23:58:00,
2013-06-02 19:59:00,69.5,67.7,29.91,SSE,164,0.0,3.0,94,0.00,,SKC,0.62,16.00,VWS V14.01,2013-06-02 23:59:00,
2013-06-02 20:00:00,69.5,67.7,29.90,SSE,164,0.0,3.0,94,0.00,,SKC,0.62,16.00,VWS V14.01,2013-06-03 00:00:00,
2013-06-02 20:01:00,69.5,67.7,29.91,SSE,164,0.0,0.0,94,0.00,,SKC,0.62,14.00,VWS V14.01,2013-06-03 00:01:00,
2013-06-02 20:03:00,69.5,67.7,29.91,SSE,164,0.0,0.0,94,0.00,,SKC,0.62,12.00,VWS V14.01,2013-06-03 00:03:00,
2013-06-02 20:04:00,69.5,67.7,29.90,SSE,164,0.0,0.0,94,0.00,,SKC,0.62,12.00,VWS V14.01,2013-06-03 00:04:00,
2013-06-02 20:06:00,69.5,67.7,29.90,SSE,164,0.0,0.0,94,0.00,,SKC,0.62,11.00,VWS V14.01,2013-06-03 00:06:00,
2013-06-02 20:08:00,69.5,67.7,29.90,SSE,164,0.0,0.0,94,0.00,,SKC,0.62,9.00,VWS V14.01,2013-06-03 00:08:00,
2013-06-02 20:10:00,69.4,67.6,29.90,SSE,164,0.0,0.0,94,0.00,,SKC,0.62,9.00,VWS V14.01,2013-06-03 00:10:00,
2013-06-02 20:11:00,69.4,67.6,29.90,SSE,164,0.0,0.0,94,0.00,,SKC,0.62,9.00,VWS V14.01,2013-06-03 00:11:00,
2013-06-02 20:12:00,69.4,67.6,29.90,SSE,164,0.0,0.0,94,0.00,,SKC,0.62,9.00,VWS V14.01,2013-06-03 00:12:00,
2013-06-02 20:13:00,69.4,67.6,29.90,SSE,164,0.0,0.0,94,0.00,,SKC,0.62,7.00,VWS V14.01,2013-06-03 00:13:00,
2013-06-02 20:14:00,69.4,67.6,29.90,SSE,164,0.0,0.0,94,0.00,,SKC,0.62,7.00,VWS V14.01,2013-06-03 00:14:00,
2013-06-02 20:15:00,69.4,67.6,29.90,SSE,164,0.0,0.0,94,0.00,,SKC,0.62,7.00,VWS V14.01,2013-06-03 00:15:00,
2013-06-02 20:16:00,69.4,67.6,29.90,SSE,164,0.0,0.0,94,0.00,,SKC,0.62,7.00,VWS V14.01,2013-06-03 00:16:00,
2013-06-02 20:17:00,69.4,67.6,29.90,SSE,164,0.0,0.0,94,0.00,,SKC,0.62,7.00,VWS V14.01,2013-06-03 00:17:00,
2013-06-02 20:19:00,69.4,67.6,29.89,SSE,164,0.0,0.0,94,0.00,,SKC,0.62,7.00,VWS V14.01,2013-06-03 00:19:00,
2013-06-02 20:20:00,69.3,67.5,29.89,SSE,164,0.0,0.0,94,0.00,,SKC,0.62,7.00,VWS V14.01,2013-06-03 00:20:00,
2013-06-02 20:21:00,69.3,67.5,29.89,SSE,164,0.0,0.0,94,0.00,,SKC,0.62,7.00,VWS V14.01,2013-06-03 00:21:00,
2013-06-02 20:22:00,69.3,67.5,29.89,SSE,164,0.0,0.0,94,0.00,,SKC,0.62,5.00,VWS V14.01,2013-06-03 00:22:00,
2013-06-02 20:24:00,69.3,67.5,29.89,SSE,164,0.0,2.0,94,0.00,,SKC,0.62,5.00,VWS V14.01,2013-06-03 00:24:00,
2013-06-02 20:26:00,69.2,67.4,29.89,SSE,164,0.0,2.0,94,0.00,,SKC,0.62,0.00,VWS V14.01,2013-06-03 00:26:00,
2013-06-02 20:27:00,69.2,67.4,29.89,SSE,164,0.0,2.0,94,0.00,,SKC,0.62,0.00,VWS V14.01,2013-06-03 00:27:00,
2013-06-02 20:29:00,69.1,67.6,29.89,SSE,164,0.0,2.0,95,0.00,,SKC,0.62,0.00,VWS V14.01,2013-06-03 00:29:00,
2013-06-02 20:31:00,69.1,67.6,29.89,SSE,164,0.0,0.0,95,0.00,,SKC,0.62,0.00,VWS V14.01,2013-06-03 00:31:00,
2013-06-02 20:32:00,69.0,67.5,29.89,SSE,164,0.0,0.0,95,0.00,,SKC,0.62,0.00,VWS V14.01,2013-06-03 00:32:00,
2013-06-02 20:34:00,69.0,67.5,29.89,SSE,164,0.0,0.0,95,0.00,,SKC,0.62,0.00,VWS V14.01,2013-06-03 00:34:00,
2013-06-02 20:37:00,68.9,67.4,29.89,SSE,164,0.0,1.0,95,0.00,,SKC,0.62,0.00,VWS V14.01,2013-06-03 00:37:00,
2013-06-02 20:39:00,68.9,67.4,29.90,SSE,164,0.0,1.0,95,0.00,,SKC,0.62,0.00,VWS V14.01,2013-06-03 00:39:00,
2013-06-02 20:40:00,68.9,67.4,29.90,SSE,164,0.0,1.0,95,0.00,,SKC,0.62,0.00,VWS V14.01,2013-06-03 00:40:00,
2013-06-02 20:42:00,68.8,67.3,29.90,SSE,165,0.0,1.0,95,0.00,,SKC,0.62,0.00,VWS V14.01,2013-06-03 00:42:00,
2013-06-02 20:44:00,68.7,67.2,29.91,SSE,165,0.0,1.0,95,0.00,,SKC,0.62,0.00,VWS V14.01,2013-06-03 00:44:00,
2013-06-02 20:45:00,68.7,67.2,29.91,SSE,165,0.0,1.0,95,0.00,,SKC,0.62,0.00,VWS V14.01,2013-06-03 00:45:00,
2013-06-02 20:47:00,68.7,67.2,29.91,SSE,165,0.0,1.0,95,0.00,,SKC,0.62,0.00,VWS V14.01,2013-06-03 00:47:00,
2013-06-02 20:50:00,68.6,67.1,29.91,SSE,165,0.0,1.0,95,0.00,,SKC,0.62,0.00,VWS V14.01,2013-06-03 00:50:00,
2013-06-02 20:52:00,68.5,67.0,29.91,SSE,165,0.0,1.0,95,0.00,,SKC,0.62,0.00,VWS V14.01,2013-06-03 00:52:00,
2013-06-02 20:53:00,68.5,67.0,29.91,SSE,165,1.0,1.0,95,0.00,,SKC,0.62,0.00,VWS V14.01,2013-06-03 00:53:00,
2013-06-02 20:55:00,68.5,67.0,29.91,SSE,165,0.0,2.0,95,0.00,,SKC,0.62,0.00,VWS V14.01,2013-06-03 00:55:00,
2013-06-02 20:57:00,68.4,67.2,29.91,SSE,165,0.0,2.0,96,0.01,,SKC,0.63,0.00,VWS V14.01,2013-06-03 00:57:00,
2013-06-02 20:58:00,68.4,67.2,29.91,SSE,165,0.0,2.0,96,0.01,,SKC,0.63,0.00,VWS V14.01,2013-06-03 00:58:00,
2013-06-02 21:00:00,68.4,67.2,29.91,SSE,165,0.0,2.0,96,0.01,,SKC,0.63,0.00,VWS V14.01,2013-06-03 01:00:00,
2013-06-02 21:03:00,68.4,67.2,29.91,SSE,165,0.0,0.0,96,0.01,,SKC,0.63,0.00,VWS V14.01,2013-06-03 01:03:00,
2013-06-02 21:04:00,68.4,67.2,29.91,SSE,165,0.0,0.0,96,0.01,,SKC,0.63,0.00,VWS V14.01,2013-06-03 01:04:00,
2013-06-02 21:05:00,68.4,67.2,29.91,SSE,165,2.0,2.0,96,0.01,,SKC,0.63,0.00,VWS V14.01,2013-06-03 01:05:00,
2013-06-02 21:08:00,68.3,67.1,29.91,SSE,165,0.0,2.0,96,0.01,,SKC,0.63,0.00,VWS V14.01,2013-06-03 01:08:00,
2013-06-02 21:09:00,68.3,67.1,29.91,SSE,165,1.0,2.0,96,0.01,,SKC,0.63,0.00,VWS V14.01,2013-06-03 01:09:00,
2013-06-02 21:10:00,68.3,67.1,29.91,SSE,165,1.0,2.0,96,0.01,,SKC,0.63,0.00,VWS V14.01,2013-06-03 01:10:00,
2013-06-02 21:11:00,68.3,67.1,29.91,SSE,165,1.0,2.0,96,0.01,,SKC,0.63,0.00,VWS V14.01,2013-06-03 01:11:00,
2013-06-02 21:13:00,68.3,67.1,29.91,SSE,165,0.0,2.0,96,0.01,,SKC,0.63,0.00,VWS V14.01,2013-06-03 01:13:00,
2013-06-02 21:14:00,68.3,67.1,29.92,SSE,165,0.0,2.0,96,0.01,,SKC,0.63,0.00,VWS V14.01,2013-06-03 01:14:00,
2013-06-02 21:16:00,68.2,67.0,29.92,SSE,165,0.0,2.0,96,0.01,,SKC,0.63,0.00,VWS V14.01,2013-06-03 01:16:00,
2013-06-02 21:18:00,68.2,67.0,29.92,SSE,165,0.0,2.0,96,0.01,,SKC,0.63,0.00,VWS V14.01,2013-06-03 01:18:00,
2013-06-02 21:20:00,68.2,67.0,29.92,SSE,165,0.0,2.0,96,0.01,,SKC,0.63,0.00,VWS V14.01,2013-06-03 01:20:00,
2013-06-02 21:21:00,68.2,67.0,29.92,SSE,165,0.0,2.0,96,0.01,,SKC,0.63,0.00,VWS V14.01,2013-06-03 01:21:00,
2013-06-02 21:23:00,68.2,67.0,29.92,SSE,165,0.0,2.0,96,0.02,,SKC,0.64,0.00,VWS V14.01,2013-06-03 01:23:00,
2013-06-02 21:24:00,68.2,67.0,29.92,SSE,165,0.0,2.0,96,0.02,,SKC,0.64,0.00,VWS V14.01,2013-06-03 01:24:00,
2013-06-02 21:25:00,68.1,66.9,29.91,SSE,165,0.0,2.0,96,0.02,,SKC,0.64,0.00,VWS V14.01,2013-06-03 01:25:00,
2013-06-02 21:26:00,68.1,66.9,29.91,SSE,165,0.0,2.0,96,0.02,,SKC,0.64,0.00,VWS V14.01,2013-06-03 01:26:00,
2013-06-02 21:28:00,68.1,66.9,29.91,SSE,165,0.0,2.0,96,0.02,,SKC,0.64,0.00,VWS V14.01,2013-06-03 01:28:00,
2013-06-02 21:29:00,68.1,66.9,29.92,SSE,165,0.0,2.0,96,0.02,,SKC,0.64,0.00,VWS V14.01,2013-06-03 01:29:00,
2013-06-02 21:30:00,68.1,66.9,29.92,SSE,165,0.0,2.0,96,0.02,,SKC,0.64,0.00,VWS V14.01,2013-06-03 01:30:00,
2013-06-02 21:31:00,68.1,66.9,29.92,SSE,165,0.0,2.0,96,0.02,,SKC,0.64,0.00,VWS V14.01,2013-06-03 01:31:00,
2013-06-02 21:33:00,68.1,66.9,29.92,SSE,165,0.0,0.0,96,0.02,,SKC,0.64,0.00,VWS V14.01,2013-06-03 01:33:00,
2013-06-02 21:34:00,68.1,66.9,29.92,SSE,165,0.0,0.0,96,0.02,,SKC,0.64,0.00,VWS V14.01,2013-06-03 01:34:00,
2013-06-02 21:36:00,68.1,66.9,29.92,SSE,165,0.0,0.0,96,0.02,,SKC,0.64,0.00,VWS V14.01,2013-06-03 01:36:00,
2013-06-02 21:37:00,68.1,66.9,29.92,SSE,165,0.0,0.0,96,0.02,,SKC,0.64,0.00,VWS V14.01,2013-06-03 01:37:00,
2013-06-02 21:39:00,68.0,66.8,29.92,SSE,165,0.0,0.0,96,0.02,,SKC,0.64,0.00,VWS V14.01,2013-06-03 01:39:00,
2013-06-02 21:42:00,68.0,66.8,29.92,SSE,165,0.0,0.0,96,0.02,,SKC,0.64,0.00,VWS V14.01,2013-06-03 01:42:00,
2013-06-02 21:44:00,68.0,66.8,29.92,SSE,165,0.0,0.0,96,0.02,,SKC,0.64,0.00,VWS V14.01,2013-06-03 01:44:00,
2013-06-02 21:47:00,67.9,66.7,29.92,SSE,165,0.0,0.0,96,0.02,,SKC,0.64,0.00,VWS V14.01,2013-06-03 01:47:00,
2013-06-02 21:49:00,67.9,66.7,29.91,SSE,165,0.0,1.0,96,0.02,,SKC,0.64,0.00,VWS V14.01,2013-06-03 01:49:00,
2013-06-02 21:52:00,68.0,67.1,29.91,SSE,165,0.0,1.0,97,0.02,,SKC,0.64,0.00,VWS V14.01,2013-06-03 01:52:00,
2013-06-02 21:53:00,68.0,67.1,29.91,SSE,165,0.0,1.0,97,0.02,,SKC,0.64,0.00,VWS V14.01,2013-06-03 01:53:00,
2013-06-02 21:54:00,68.0,67.1,29.91,SSE,165,0.0,1.0,97,0.02,,SKC,0.64,0.00,VWS V14.01,2013-06-03 01:54:00,
2013-06-02 21:57:00,68.0,67.1,29.91,SSE,165,0.0,1.0,97,0.02,,SKC,0.64,0.00,VWS V14.01,2013-06-03 01:57:00,
2013-06-02 21:58:00,68.0,67.1,29.91,SSE,165,0.0,1.0,97,0.02,,SKC,0.64,0.00,VWS V14.01,2013-06-03 01:58:00,
2013-06-02 21:59:00,67.9,67.0,29.91,SSE,165,0.0,1.0,97,0.02,,SKC,0.64,0.00,VWS V14.01,2013-06-03 01:59:00,
2013-06-02 22:02:00,67.9,67.0,29.91,SSE,165,0.0,0.0,97,0.01,,SKC,0.64,0.00,VWS V14.01,2013-06-03 02:02:00,
2013-06-02 22:03:00,67.9,67.0,29.91,SSE,165,0.0,0.0,97,0.01,,SKC,0.64,0.00,VWS V14.01,2013-06-03 02:03:00,
2013-06-02 22:04:00,67.9,67.0,29.91,SSE,165,0.0,0.0,97,0.01,,SKC,0.64,0.00,VWS V14.01,2013-06-03 02:04:00,
2013-06-02 22:05:00,67.9,67.0,29.91,SSE,165,0.0,0.0,97,0.01,,SKC,0.64,0.00,VWS V14.01,2013-06-03 02:05:00,
2013-06-02 22:07:00,67.9,67.0,29.91,SSE,165,0.0,0.0,97,0.01,,SKC,0.64,0.00,VWS V14.01,2013-06-03 02:07:00,
2013-06-02 22:08:00,67.9,67.0,29.91,SSE,165,0.0,0.0,97,0.01,,SKC,0.64,0.00,VWS V14.01,2013-06-03 02:08:00,
2013-06-02 22:09:00,67.9,67.0,29.91,SSE,165,0.0,0.0,97,0.01,,SKC,0.64,0.00,VWS V14.01,2013-06-03 02:09:00,
2013-06-02 22:10:00,67.9,67.0,29.91,SSE,165,0.0,0.0,97,0.01,,SKC,0.64,0.00,VWS V14.01,2013-06-03 02:10:00,
2013-06-02 22:12:00,67.9,67.0,29.91,SSE,165,0.0,0.0,97,0.01,,SKC,0.64,0.00,VWS V14.01,2013-06-03 02:12:00,
2013-06-02 22:13:00,67.8,66.9,29.90,SSE,165,0.0,0.0,97,0.01,,SKC,0.64,0.00,VWS V14.01,2013-06-03 02:13:00,
2013-06-02 22:14:00,67.8,66.9,29.90,SSE,165,0.0,0.0,97,0.01,,SKC,0.64,0.00,VWS V14.01,2013-06-03 02:14:00,
2013-06-02 22:15:00,67.8,66.9,29.90,SSE,165,0.0,0.0,97,0.01,,SKC,0.64,0.00,VWS V14.01,2013-06-03 02:15:00,
2013-06-02 22:17:00,67.8,66.9,29.90,SSE,165,2.0,2.0,97,0.01,,SKC,0.64,0.00,VWS V14.01,2013-06-03 02:17:00,
2013-06-02 22:18:00,67.8,66.9,29.90,SSE,165,1.0,2.0,97,0.01,,SKC,0.64,0.00,VWS V14.01,2013-06-03 02:18:00,
2013-06-02 22:19:00,67.8,66.9,29.90,SSE,165,2.0,2.0,97,0.01,,SKC,0.64,0.00,VWS V14.01,2013-06-03 02:19:00,
2013-06-02 22:20:00,67.8,66.9,29.90,SSE,165,2.0,2.0,97,0.01,,SKC,0.64,0.00,VWS V14.01,2013-06-03 02:20:00,
2013-06-02 22:21:00,67.8,66.9,29.90,SSE,165,2.0,2.0,97,0.01,,SKC,0.64,0.00,VWS V14.01,2013-06-03 02:21:00,
2013-06-02 22:23:00,67.7,66.8,29.90,SSE,165,2.0,3.0,97,0.01,,SKC,0.64,0.00,VWS V14.01,2013-06-03 02:23:00,
2013-06-02 22:24:00,67.7,66.8,29.90,SSE,165,2.0,3.0,97,0.01,,SKC,0.64,0.00,VWS V14.01,2013-06-03 02:24:00,
2013-06-02 22:25:00,67.7,66.8,29.90,SSE,165,2.0,3.0,97,0.01,,SKC,0.64,0.00,VWS V14.01,2013-06-03 02:25:00,
2013-06-02 22:26:00,67.7,66.8,29.90,SSE,165,3.0,3.0,97,0.01,,SKC,0.64,0.00,VWS V14.01,2013-06-03 02:26:00,
2013-06-02 22:28:00,67.7,66.8,29.90,SSE,165,1.0,3.0,97,0.01,,SKC,0.64,0.00,VWS V14.01,2013-06-03 02:28:00,
2013-06-02 22:29:00,67.7,66.8,29.90,SSE,165,1.0,3.0,97,0.01,,SKC,0.64,0.00,VWS V14.01,2013-06-03 02:29:00,
2013-06-02 22:30:00,67.7,66.8,29.90,SSE,165,1.0,3.0,97,0.01,,SKC,0.64,0.00,VWS V14.01,2013-06-03 02:30:00,
2013-06-02 22:31:00,67.7,66.8,29.90,SSE,165,1.0,1.0,97,0.00,,SKC,0.64,0.00,VWS V14.01,2013-06-03 02:31:00,
2013-06-02 22:33:00,67.7,66.8,29.90,SSE,165,0.0,2.0,97,0.00,,SKC,0.64,0.00,VWS V14.01,2013-06-03 02:33:00,
2013-06-02 22:34:00,67.7,66.8,29.90,SSE,165,0.0,2.0,97,0.00,,SKC,0.64,0.00,VWS V14.01,2013-06-03 02:34:00,
2013-06-02 22:35:00,67.7,66.8,29.90,SSE,165,1.0,2.0,97,0.00,,SKC,0.64,0.00,VWS V14.01,2013-06-03 02:35:00,
2013-06-02 22:36:00,67.6,66.7,29.90,SSE,165,0.0,2.0,97,0.00,,SKC,0.64,0.00,VWS V14.01,2013-06-03 02:36:00,
2013-06-02 22:37:00,67.6,66.7,29.90,SSE,165,0.0,2.0,97,0.00,,SKC,0.64,0.00,VWS V14.01,2013-06-03 02:37:00,
2013-06-02 22:38:00,67.6,66.7,29.90,SSE,165,0.0,2.0,97,0.00,,SKC,0.64,0.00,VWS V14.01,2013-06-03 02:38:00,
2013-06-02 22:39:00,67.6,66.7,29.90,SSE,165,0.0,2.0,97,0.00,,SKC,0.64,0.00,VWS V14.01,2013-06-03 02:39:00,
2013-06-02 22:40:00,67.6,66.7,29.90,SSE,165,0.0,2.0,97,0.00,,SKC,0.64,0.00,VWS V14.01,2013-06-03 02:40:00,
2013-06-02 22:42:00,67.6,66.7,29.90,SSE,165,0.0,2.0,97,0.00,,SKC,0.64,0.00,VWS V14.01,2013-06-03 02:42:00,
2013-06-02 22:43:00,67.5,66.6,29.90,SSE,165,0.0,2.0,97,0.00,,SKC,0.64,0.00,VWS V14.01,2013-06-03 02:43:00,
2013-06-02 22:44:00,67.5,66.6,29.90,SSE,165,0.0,2.0,97,0.00,,SKC,0.64,0.00,VWS V14.01,2013-06-03 02:44:00,
2013-06-02 22:45:00,67.5,66.6,29.90,SSE,165,0.0,2.0,97,0.00,,SKC,0.64,0.00,VWS V14.01,2013-06-03 02:45:00,
2013-06-02 22:47:00,67.5,66.6,29.90,SSE,165,0.0,2.0,97,0.00,,SKC,0.64,0.00,VWS V14.01,2013-06-03 02:47:00,
2013-06-02 22:48:00,67.5,66.6,29.90,SSE,165,0.0,2.0,97,0.00,,SKC,0.64,0.00,VWS V14.01,2013-06-03 02:48:00,
2013-06-02 22:49:00,67.5,66.6,29.90,SSE,165,0.0,2.0,97,0.00,,SKC,0.64,0.00,VWS V14.01,2013-06-03 02:49:00,
2013-06-02 22:50:00,67.5,66.6,29.90,SSE,165,0.0,2.0,97,0.00,,SKC,0.64,0.00,VWS V14.01,2013-06-03 02:50:00,
2013-06-02 22:52:00,67.5,66.6,29.90,SSE,165,0.0,2.0,97,0.00,,SKC,0.64,0.00,VWS V14.01,2013-06-03 02:52:00,
2013-06-02 22:53:00,67.5,66.6,29.90,SSE,165,0.0,2.0,97,0.00,,SKC,0.64,0.00,VWS V14.01,2013-06-03 02:53:00,
2013-06-02 22:54:00,67.5,66.6,29.90,SSE,165,0.0,2.0,97,0.00,,SKC,0.64,0.00,VWS V14.01,2013-06-03 02:54:00,
2013-06-02 22:56:00,67.5,66.6,29.90,SSE,165,1.0,2.0,97,0.00,,SKC,0.64,0.00,VWS V14.01,2013-06-03 02:56:00,
2013-06-02 22:57:00,67.5,66.6,29.90,SSE,165,0.0,2.0,97,0.00,,SKC,0.64,0.00,VWS V14.01,2013-06-03 02:57:00,
2013-06-02 22:58:00,67.5,66.6,29.90,SSE,165,0.0,2.0,97,0.00,,SKC,0.64,0.00,VWS V14.01,2013-06-03 02:58:00,
2013-06-02 22:59:00,67.5,66.6,29.90,SSE,165,0.0,2.0,97,0.00,,SKC,0.64,0.00,VWS V14.01,2013-06-03 02:59:00,
2013-06-02 23:00:00,67.4,66.5,29.90,SSE,165,0.0,2.0,97,0.00,,SKC,0.64,0.00,VWS V14.01,2013-06-03 03:00:00,
2013-06-02 23:01:00,67.4,66.5,29.90,SSE,165,0.0,0.0,97,0.00,,SKC,0.64,0.00,VWS V14.01,2013-06-03 03:01:00,
2013-06-02 23:02:00,67.4,66.5,29.90,SSE,165,0.0,0.0,97,0.00,,SKC,0.64,0.00,VWS V14.01,2013-06-03 03:02:00,
2013-06-02 23:03:00,67.4,66.5,29.90,SSE,165,0.0,0.0,97,0.00,,SKC,0.64,0.00,VWS V14.01,2013-06-03 03:03:00,
2013-06-02 23:04:00,67.4,66.5,29.90,SSE,165,0.0,0.0,97,0.00,,SKC,0.64,0.00,VWS V14.01,2013-06-03 03:04:00,
2013-06-02 23:05:00,67.4,66.5,29.90,SSE,165,0.0,0.0,97,0.00,,SKC,0.64,0.00,VWS V14.01,2013-06-03 03:05:00,
2013-06-02 23:07:00,67.4,66.5,29.90,SSE,165,0.0,1.0,97,0.00,,SKC,0.64,0.00,VWS V14.01,2013-06-03 03:07:00,
2013-06-02 23:08:00,67.4,66.5,29.90,SSE,165,0.0,1.0,97,0.00,,SKC,0.64,0.00,VWS V14.01,2013-06-03 03:08:00,
2013-06-02 23:09:00,67.3,66.4,29.90,SSE,165,0.0,1.0,97,0.00,,SKC,0.64,0.00,VWS V14.01,2013-06-03 03:09:00,
2013-06-02 23:10:00,67.3,66.7,29.90,SSE,165,0.0,1.0,98,0.00,,SKC,0.64,0.00,VWS V14.01,2013-06-03 03:10:00,
2013-06-02 23:12:00,67.3,66.7,29.90,SSE,165,0.0,1.0,98,0.00,,SKC,0.64,0.00,VWS V14.01,2013-06-03 03:12:00,
2013-06-02 23:13:00,67.3,66.7,29.90,SSE,165,0.0,1.0,98,0.00,,SKC,0.64,0.00,VWS V14.01,2013-06-03 03:13:00,
2013-06-02 23:14:00,67.3,66.7,29.90,SSE,165,0.0,1.0,98,0.00,,SKC,0.64,0.00,VWS V14.01,2013-06-03 03:14:00,
2013-06-02 23:15:00,67.3,66.7,29.90,SSE,165,0.0,1.0,98,0.00,,SKC,0.64,0.00,VWS V14.01,2013-06-03 03:15:00,
2013-06-02 23:17:00,67.2,66.3,29.90,SSE,165,0.0,1.0,97,0.00,,SKC,0.64,0.00,VWS V14.01,2013-06-03 03:17:00,
2013-06-02 23:18:00,67.2,66.6,29.90,SSE,165,0.0,1.0,98,0.00,,SKC,0.64,0.00,VWS V14.01,2013-06-03 03:18:00,
2013-06-02 23:19:00,67.2,66.6,29.90,SSE,165,0.0,1.0,98,0.00,,SKC,0.64,0.00,VWS V14.01,2013-06-03 03:19:00,
2013-06-02 23:20:00,67.2,66.6,29.90,SSE,165,0.0,1.0,98,0.00,,SKC,0.64,0.00,VWS V14.01,2013-06-03 03:20:00,
2013-06-02 23:22:00,67.2,66.6,29.90,SSE,165,0.0,1.0,98,0.00,,SKC,0.64,0.00,VWS V14.01,2013-06-03 03:22:00,
2013-06-02 23:23:00,67.2,66.6,29.90,SSE,165,0.0,1.0,98,0.00,,SKC,0.64,0.00,VWS V14.01,2013-06-03 03:23:00,
2013-06-02 23:24:00,67.1,66.5,29.90,SSE,165,0.0,1.0,98,0.00,,SKC,0.64,0.00,VWS V14.01,2013-06-03 03:24:00,
2013-06-02 23:25:00,67.2,66.6,29.90,SSE,165,0.0,1.0,98,0.00,,SKC,0.64,0.00,VWS V14.01,2013-06-03 03:25:00,
2013-06-02 23:27:00,67.1,66.5,29.91,SSE,165,0.0,1.0,98,0.00,,SKC,0.64,0.00,VWS V14.01,2013-06-03 03:27:00,
2013-06-02 23:28:00,67.2,66.6,29.90,SSE,165,0.0,1.0,98,0.00,,SKC,0.64,0.00,VWS V14.01,2013-06-03 03:28:00,
2013-06-02 23:29:00,67.2,66.6,29.90,SSE,165,0.0,1.0,98,0.00,,SKC,0.64,0.00,VWS V14.01,2013-06-03 03:29:00,
2013-06-02 23:31:00,67.1,66.5,29.90,SSE,165,0.0,1.0,98,0.00,,SKC,0.64,0.00,VWS V14.01,2013-06-03 03:31:00,
2013-06-02 23:32:00,67.1,66.5,29.90,SSE,165,0.0,0.0,98,0.00,,SKC,0.64,0.00,VWS V14.01,2013-06-03 03:32:00,
2013-06-02 23:33:00,67.1,66.5,29.90,SSE,165,0.0,0.0,98,0.00,,SKC,0.64,0.00,VWS V14.01,2013-06-03 03:33:00,
2013-06-02 23:35:00,67.1,66.5,29.90,SSE,165,0.0,0.0,98,0.00,,SKC,0.64,0.00,VWS V14.01,2013-06-03 03:35:00,
2013-06-02 23:36:00,67.1,66.5,29.90,SSE,165,0.0,0.0,98,0.00,,SKC,0.64,0.00,VWS V14.01,2013-06-03 03:36:00,
2013-06-02 23:37:00,67.1,66.5,29.90,SSE,165,0.0,0.0,98,0.00,,SKC,0.64,0.00,VWS V14.01,2013-06-03 03:37:00,
2013-06-02 23:38:00,67.1,66.5,29.90,SSE,165,0.0,0.0,98,0.00,,SKC,0.64,0.00,VWS V14.01,2013-06-03 03:38:00,
2013-06-02 23:40:00,67.1,66.5,29.90,SSE,165,0.0,0.0,98,0.00,,SKC,0.64,0.00,VWS V14.01,2013-06-03 03:40:00,
2013-06-02 23:41:00,67.1,66.5,29.90,SSE,165,0.0,0.0,98,0.00,,SKC,0.64,0.00,VWS V14.01,2013-06-03 03:41:00,
2013-06-02 23:42:00,67.1,66.5,29.90,SSE,165,0.0,0.0,98,0.00,,SKC,0.64,0.00,VWS V14.01,2013-06-03 03:42:00,
2013-06-02 23:43:00,67.1,66.5,29.90,SSE,165,0.0,0.0,98,0.00,,SKC,0.64,0.00,VWS V14.01,2013-06-03 03:43:00,
2013-06-02 23:45:00,67.2,66.6,29.90,SSE,165,0.0,0.0,98,0.00,,SKC,0.64,0.00,VWS V14.01,2013-06-03 03:45:00,
2013-06-02 23:46:00,67.1,66.5,29.90,SSE,165,0.0,0.0,98,0.00,,SKC,0.64,0.00,VWS V14.01,2013-06-03 03:46:00,
2013-06-02 23:47:00,67.1,66.5,29.90,SSE,165,0.0,0.0,98,0.00,,SKC,0.64,0.00,VWS V14.01,2013-06-03 03:47:00,
2013-06-02 23:48:00,67.1,66.5,29.90,SSE,165,0.0,0.0,98,0.00,,SKC,0.64,0.00,VWS V14.01,2013-06-03 03:48:00,
2013-06-02 23:51:00,67.1,66.5,29.90,SSE,165,0.0,0.0,98,0.00,,SKC,0.64,0.00,VWS V14.01,2013-06-03 03:51:00,
2013-06-02 23:53:00,67.1,66.5,29.90,SSE,165,0.0,1.0,98,0.00,,SKC,0.64,0.00,VWS V14.01,2013-06-03 03:53:00,
2013-06-02 23:56:00,67.0,66.4,29.90,SSE,165,0.0,1.0,98,0.00,,SKC,0.64,0.00,VWS V14.01,2013-06-03 03:56:00,
2013-06-02 23:57:00,67.0,66.4,29.90,SSE,165,0.0,1.0,98,0.00,,SKC,0.64,0.00,VWS V14.01,2013-06-03 03:57:00,
2013-06-02 23:58:00,67.0,66.4,29.90,SSE,165,0.0,1.0,98,0.00,,SKC,0.64,0.00,VWS V14.01,2013-06-03 03:58:00,